M I D A S
Marine Information and Data Acquisition System
Tripno 1791 of the Zeeleeuw from 2009-09-28 09:58:56 to 2009-09-28 15:36:03
Back to CruiseResearch ActivitiesStationsMapUnderway DataData graphs

EquipmentUnitsComment
TimeDGPSUTC
LatitudeDGPSDM.mWGS84
LongitudeDGPSDM.mWGS84
TemperatureSBE03/SBE38deg celciusITS90
ConductivitySBE21S/mITS90
SalinitySBE21 Practical Salinity Units
ChlorophylAChelsea fluorimeterg/lCalibrated in Aceton
Missing or incorrect values are displayed as -999
Sea surface data collected by the RV Zeeleeuw from 2009-09-28 09:57:43 to 2009-09-28 15:41:13
                                                                                    Next 1000 lines
Time Latitude Longitude Temperature Conductivity Salinity ChlorophylA
2009-09-28 09:57:53 51°13.663 2°55.959 19.1334 0.026154 0.145694 3.422087
2009-09-28 09:57:58 51°13.664 2°55.957 19.1364 0.026154 0.145694 3.422087
2009-09-28 09:58:03 51°13.664 2°55.955 19.1479 0.026154 0.145694 3.422087
2009-09-28 09:58:08 51°13.665 2°55.953 19.1622 0.026154 0.145694 3.422087
2009-09-28 09:58:13 51°13.665 2°55.951 19.1561 0.026154 0.145694 3.422087
2009-09-28 09:58:18 51°13.666 2°55.948 19.1498 0.026154 0.145696 3.422087
2009-09-28 09:58:23 51°13.667 2°55.945 19.1526 0.026154 0.145696 3.422087
2009-09-28 09:58:29 51°13.668 2°55.94 19.1678 0.026154 0.145696 3.422087
2009-09-28 09:58:35 51°13.67 2°55.935 19.162 0.026154 0.145699 3.422087
2009-09-28 09:58:41 51°13.671 2°55.929 19.1677 0.026154 0.145699 3.422087
2009-09-28 09:58:46 51°13.673 2°55.924 19.1829 0.026154 0.145699 3.422087
2009-09-28 09:58:52 51°13.674 2°55.918 19.1789 0.026154 0.145699 3.422087
2009-09-28 09:58:56 51°13.675 2°55.914 19.193 0.026154 0.145701 3.422087
2009-09-28 09:59:02 51°13.677 2°55.908 19.1819 0.026154 0.145701 3.422087
2009-09-28 09:59:07 51°13.679 2°55.902 19.1838 0.026154 0.145701 3.422087
2009-09-28 09:59:12 51°13.68 2°55.897 19.1838 0.026154 0.145701 3.422087
2009-09-28 09:59:16 51°13.681 2°55.892 19.1799 0.026154 0.145699 3.422087
2009-09-28 09:59:22 51°13.683 2°55.886 19.1802 0.026154 0.145701 3.422087
2009-09-28 09:59:27 51°13.684 2°55.88 19.1812 0.026257 0.146276 3.422087
2009-09-28 09:59:32 51°13.685 2°55.874 19.1829 0.026257 0.146276 3.422087
2009-09-28 09:59:36 51°13.686 2°55.87 19.183 0.026257 0.146276 3.422087
2009-09-28 09:59:42 51°13.688 2°55.863 19.1833 0.026257 0.146281 3.422087
2009-09-28 09:59:46 51°13.689 2°55.859 19.1834 0.026257 0.146284 3.422087
2009-09-28 09:59:52 51°13.69 2°55.853 19.1845 0.026257 0.146284 3.422087
2009-09-28 09:59:56 51°13.691 2°55.848 19.1847 0.026257 0.146284 3.422087
2009-09-28 10:00:02 51°13.692 2°55.841 19.1921 0.026257 0.146284 3.422087
2009-09-28 10:00:07 51°13.693 2°55.836 19.1859 0.026257 0.146281 3.422087
2009-09-28 10:00:12 51°13.694 2°55.83 19.1846 0.026154 0.145706 3.422087
2009-09-28 10:00:16 51°13.695 2°55.826 19.1844 0.026154 0.145704 3.422087
2009-09-28 10:00:22 51°13.696 2°55.819 19.1852 0.026257 0.146276 3.422087
2009-09-28 10:00:27 51°13.697 2°55.814 19.193 0.026257 0.146276 3.422087
2009-09-28 10:00:31 51°13.697 2°55.81 19.1978 0.026257 0.146276 3.422087
2009-09-28 10:00:37 51°13.698 2°55.804 19.1949 0.026257 0.146276 3.422087
2009-09-28 10:00:42 51°13.699 2°55.799 19.1931 0.026257 0.146279 3.422087
2009-09-28 10:00:47 51°13.7 2°55.795 19.1962 0.026257 0.146279 3.422087
2009-09-28 10:00:51 51°13.7 2°55.792 19.1999 0.026257 0.146284 3.422087
2009-09-28 10:00:56 51°13.701 2°55.789 19.2101 0.026257 0.146286 3.422087
2009-09-28 10:01:01 51°13.701 2°55.787 19.2119 0.026257 0.146286 3.422087
2009-09-28 10:01:06 51°13.701 2°55.787 19.2194 0.026257 0.146291 3.422087
2009-09-28 10:01:11 51°13.702 2°55.786 19.2263 0.026257 0.146296 3.422087
2009-09-28 10:01:16 51°13.703 2°55.787 19.2285 0.026257 0.146301 3.422087
2009-09-28 10:01:20 51°13.703 2°55.788 19.2305 0.026257 0.146309 3.422087
2009-09-28 10:01:25 51°13.704 2°55.79 19.1971 0.026257 0.146314 3.422087
2009-09-28 10:01:30 51°13.705 2°55.792 19.1963 0.026257 0.146314 3.422087
2009-09-28 10:01:35 51°13.706 2°55.794 19.1848 0.026257 0.146304 3.422087
2009-09-28 10:01:40 51°13.706 2°55.796 19.1904 0.026257 0.146296 3.422087
2009-09-28 10:01:45 51°13.707 2°55.797 19.1893 0.026257 0.146291 3.422087
2009-09-28 10:01:50 51°13.707 2°55.798 19.1865 0.026257 0.146289 3.422087
2009-09-28 10:01:55 51°13.708 2°55.798 19.1767 0.026257 0.146284 3.422087
2009-09-28 10:02:00 51°13.707 2°55.798 19.17 0.026257 0.146284 3.422087
2009-09-28 10:02:04 51°13.707 2°55.797 19.2028 0.026257 0.146281 3.422087
2009-09-28 10:02:09 51°13.706 2°55.796 19.202 0.026257 0.146296 3.456911
2009-09-28 10:02:14 51°13.705 2°55.795 19.202 0.026257 0.146309 3.422087
2009-09-28 10:02:19 51°13.703 2°55.793 19.2134 0.026257 0.146317 3.456911
2009-09-28 10:02:24 51°13.702 2°55.791 19.2148 0.026257 0.146322 3.422087
2009-09-28 10:02:29 51°13.701 2°55.79 19.2219 0.026257 0.146322 3.422087
2009-09-28 10:02:34 51°13.7 2°55.789 19.2287 0.026257 0.146319 3.422087
2009-09-28 10:02:40 51°13.7 2°55.788 19.2342 0.026257 0.146317 3.422087
2009-09-28 10:02:45 51°13.7 2°55.788 19.2338 0.026257 0.146322 3.422087
2009-09-28 10:02:51 51°13.702 2°55.789 19.2331 0.026257 0.146334 3.422087
2009-09-28 10:02:56 51°13.704 2°55.79 19.2363 0.026257 0.146342 3.456911
2009-09-28 10:03:01 51°13.706 2°55.79 19.2126 0.026257 0.146342 3.456911
2009-09-28 10:03:06 51°13.707 2°55.79 19.1909 0.026257 0.146337 3.456911
2009-09-28 10:03:11 51°13.709 2°55.79 19.1808 0.026257 0.146324 3.456911
2009-09-28 10:03:16 51°13.711 2°55.79 19.1754 0.026257 0.146319 3.422087
2009-09-28 10:03:21 51°13.711 2°55.79 19.201 0.026257 0.146314 3.422087
2009-09-28 10:03:26 51°13.711 2°55.79 19.1912 0.026257 0.146309 3.422087
2009-09-28 10:03:31 51°13.711 2°55.791 19.179 0.026257 0.146309 3.422087
2009-09-28 10:03:35 51°13.71 2°55.791 19.2067 0.026257 0.146301 3.422087
2009-09-28 10:03:40 51°13.709 2°55.792 19.2025 0.026257 0.146296 3.422087
2009-09-28 10:03:45 51°13.708 2°55.793 19.2202 0.026257 0.146301 3.422087
2009-09-28 10:03:50 51°13.706 2°55.793 19.2183 0.026257 0.146304 3.422087
2009-09-28 10:03:55 51°13.705 2°55.794 19.2189 0.026257 0.146309 3.422087
2009-09-28 10:04:00 51°13.704 2°55.794 19.2334 0.026257 0.146309 3.422087
2009-09-28 10:04:06 51°13.703 2°55.794 19.2384 0.026257 0.146317 3.422087
2009-09-28 10:04:12 51°13.704 2°55.793 19.239 0.026257 0.146327 3.422087
2009-09-28 10:04:16 51°13.704 2°55.792 19.2388 0.026257 0.146334 3.422087
2009-09-28 10:04:22 51°13.706 2°55.791 19.2385 0.026257 0.146337 3.422087
2009-09-28 10:04:26 51°13.707 2°55.79 19.2354 0.026257 0.146337 3.422087
2009-09-28 10:04:31 51°13.709 2°55.788 19.2345 0.026257 0.146337 3.422087
2009-09-28 10:04:36 51°13.711 2°55.785 19.2274 0.026257 0.146337 3.422087
2009-09-28 10:04:41 51°13.713 2°55.782 19.224 0.026257 0.146339 3.456911
2009-09-28 10:04:45 51°13.714 2°55.779 19.235 0.026257 0.146337 3.422087
2009-09-28 10:04:51 51°13.717 2°55.775 19.2238 0.026257 0.146332 3.422087
2009-09-28 10:04:56 51°13.72 2°55.77 19.2188 0.026257 0.146329 3.422087
2009-09-28 10:05:00 51°13.722 2°55.767 19.218 0.026257 0.146329 3.422087
2009-09-28 10:05:05 51°13.725 2°55.761 19.218 0.026257 0.146327 3.422087
2009-09-28 10:05:10 51°13.728 2°55.756 19.2183 0.026257 0.146324 3.422087
2009-09-28 10:05:15 51°13.732 2°55.75 19.2183 0.026257 0.146324 3.422087
2009-09-28 10:05:20 51°13.735 2°55.744 19.2153 0.026257 0.146324 3.422087
2009-09-28 10:05:24 51°13.738 2°55.739 19.2156 0.026257 0.146322 3.422087
2009-09-28 10:05:29 51°13.742 2°55.732 19.2102 0.026257 0.146322 3.422087
2009-09-28 10:05:34 51°13.746 2°55.725 19.2041 0.026257 0.146322 3.422087
2009-09-28 10:05:39 51°13.751 2°55.719 19.2005 0.026257 0.146319 3.422087
2009-09-28 10:05:44 51°13.755 2°55.712 19.1967 0.026257 0.146317 3.456911
2009-09-28 10:05:49 51°13.76 2°55.705 19.1948 0.026257 0.146314 3.456911
2009-09-28 10:05:53 51°13.764 2°55.7 19.1956 0.026257 0.146309 3.422087
2009-09-28 10:05:58 51°13.769 2°55.693 19.1986 0.026257 0.146309 3.422087
2009-09-28 10:06:03 51°13.774 2°55.687 19.2011 0.026257 0.146304 3.422087
2009-09-28 10:06:08 51°13.78 2°55.681 19.2141 0.026257 0.146299 3.456911
2009-09-28 10:06:13 51°13.787 2°55.675 19.2163 0.026257 0.146294 3.456911
2009-09-28 10:06:18 51°13.793 2°55.669 19.2267 0.026257 0.146291 3.422087
2009-09-28 10:06:23 51°13.8 2°55.663 19.2186 0.026257 0.146294 3.456911
2009-09-28 10:06:28 51°13.806 2°55.657 19.2187 0.026257 0.146294 3.456911
2009-09-28 10:06:33 51°13.813 2°55.651 19.2158 0.026257 0.146296 3.456911
2009-09-28 10:06:38 51°13.821 2°55.644 19.2124 0.026257 0.146294 3.422087
2009-09-28 10:06:43 51°13.828 2°55.638 19.216 0.026257 0.146291 3.456911
2009-09-28 10:06:48 51°13.836 2°55.632 19.2152 0.026257 0.146289 3.456911
2009-09-28 10:06:53 51°13.843 2°55.626 19.2217 0.026257 0.146286 3.422087
2009-09-28 10:06:58 51°13.851 2°55.62 19.2228 0.026257 0.146286 3.422087
2009-09-28 10:07:03 51°13.859 2°55.614 19.2221 0.026257 0.146286 3.456911
2009-09-28 10:07:08 51°13.867 2°55.608 19.222 0.026257 0.146286 3.422087
2009-09-28 10:07:13 51°13.875 2°55.602 19.2262 0.026257 0.146286 3.422087
2009-09-28 10:07:18 51°13.883 2°55.597 19.2234 0.026257 0.146284 3.422087
2009-09-28 10:07:23 51°13.891 2°55.591 19.2184 0.026257 0.146284 3.456911
2009-09-28 10:07:28 51°13.9 2°55.585 19.2256 0.026257 0.146284 3.456911
2009-09-28 10:07:33 51°13.908 2°55.579 19.2303 0.026257 0.146284 3.456911
2009-09-28 10:07:38 51°13.916 2°55.574 19.2343 0.026257 0.146284 3.456911
2009-09-28 10:07:43 51°13.924 2°55.568 19.2358 0.026257 0.146281 3.422087
2009-09-28 10:07:48 51°13.933 2°55.562 19.2353 0.026257 0.146286 3.456911
2009-09-28 10:07:52 51°13.939 2°55.557 19.2351 0.026257 0.146286 3.456911
2009-09-28 10:07:58 51°13.95 2°55.55 19.2335 0.026257 0.146286 3.456911
2009-09-28 10:08:03 51°13.958 2°55.545 19.2336 0.026257 0.146286 3.422087
2009-09-28 10:08:08 51°13.967 2°55.539 19.2361 0.026257 0.146286 3.456911
2009-09-28 10:08:13 51°13.975 2°55.533 19.2366 0.026257 0.146284 3.456911
2009-09-28 10:08:18 51°13.983 2°55.527 19.2387 0.026257 0.146284 3.456911
2009-09-28 10:08:23 51°13.992 2°55.521 19.2363 0.026257 0.146286 3.456911
2009-09-28 10:08:28 51°14 2°55.515 19.2351 0.026257 0.146286 3.456911
2009-09-28 10:08:33 51°14.008 2°55.509 19.2338 0.026257 0.146289 3.422087
2009-09-28 10:08:38 51°14.017 2°55.503 19.2348 0.026257 0.146289 3.456911
2009-09-28 10:08:43 51°14.025 2°55.497 19.2372 0.026257 0.146286 3.456911
2009-09-28 10:08:48 51°14.033 2°55.491 19.2387 0.026257 0.146286 3.456911
2009-09-28 10:08:53 51°14.041 2°55.485 19.237 0.026257 0.146284 3.456911
2009-09-28 10:08:58 51°14.05 2°55.478 19.2399 0.026257 0.146284 3.456911
2009-09-28 10:09:03 51°14.058 2°55.472 19.2432 0.026257 0.146284 3.456911
2009-09-28 10:09:08 51°14.067 2°55.466 19.2504 0.026257 0.146281 3.422087
2009-09-28 10:09:13 51°14.075 2°55.46 19.2788 0.026257 0.146281 3.456911
2009-09-28 10:09:18 51°14.083 2°55.454 19.2821 0.026257 0.146284 3.456911
2009-09-28 10:09:23 51°14.092 2°55.448 19.269 0.026257 0.146286 3.456911
2009-09-28 10:09:28 51°14.1 2°55.441 19.2667 0.026257 0.146286 3.456911
2009-09-28 10:09:33 51°14.109 2°55.435 19.2639 0.026257 0.146289 3.456911
2009-09-28 10:09:38 51°14.118 2°55.428 19.2709 0.026257 0.146294 3.456911
2009-09-28 10:09:43 51°14.126 2°55.421 19.2752 0.026257 0.146296 3.456911
2009-09-28 10:09:48 51°14.135 2°55.414 19.2798 0.026257 0.146299 3.456911
2009-09-28 10:09:52 51°14.142 2°55.408 19.2907 0.026257 0.146304 3.456911
2009-09-28 10:09:58 51°14.153 2°55.398 19.2943 0.026257 0.146304 3.456911
2009-09-28 10:10:03 51°14.161 2°55.389 19.289 0.026257 0.146309 3.456911
2009-09-28 10:10:08 51°14.169 2°55.38 19.2772 0.026257 0.146311 3.456911
2009-09-28 10:10:13 51°14.178 2°55.37 19.2646 0.026257 0.146314 3.456911
2009-09-28 10:10:18 51°14.185 2°55.36 19.2656 0.026257 0.146311 3.456911
2009-09-28 10:10:23 51°14.193 2°55.35 19.2602 0.026257 0.146306 3.456911
2009-09-28 10:10:28 51°14.201 2°55.34 19.2596 0.026257 0.146306 3.456911
2009-09-28 10:10:33 51°14.209 2°55.328 19.2633 0.026257 0.146296 3.456911
2009-09-28 10:10:38 51°14.217 2°55.318 19.2791 0.026257 0.146294 3.422087
2009-09-28 10:10:43 51°14.225 2°55.306 19.2741 0.026257 0.146291 3.422087
2009-09-28 10:10:48 51°14.232 2°55.295 19.2849 0.026257 0.146289 3.456911
2009-09-28 10:10:53 51°14.241 2°55.283 19.2814 0.026257 0.146289 3.456911
2009-09-28 10:10:58 51°14.248 2°55.271 19.28 0.026257 0.146289 3.456911
2009-09-28 10:11:03 51°14.256 2°55.258 19.2635 0.026257 0.146289 3.456911
2009-09-28 10:11:08 51°14.264 2°55.245 19.286 0.026257 0.146284 3.456911
2009-09-28 10:11:13 51°14.272 2°55.233 19.2865 0.026257 0.146284 3.456911
2009-09-28 10:11:18 51°14.28 2°55.22 19.2888 0.026257 0.146284 3.456911
2009-09-28 10:11:23 51°14.288 2°55.206 19.2855 0.026257 0.146284 3.456911
2009-09-28 10:11:28 51°14.295 2°55.193 19.2737 0.026257 0.146284 3.456911
2009-09-28 10:11:33 51°14.303 2°55.179 19.2861 0.026257 0.146289 3.456911
2009-09-28 10:11:38 51°14.31 2°55.165 19.2623 0.026257 0.146294 3.456911
2009-09-28 10:11:43 51°14.317 2°55.151 19.2734 0.026257 0.146299 3.456911
2009-09-28 10:11:48 51°14.325 2°55.137 19.2745 0.026257 0.146306 3.456911
2009-09-28 10:11:53 51°14.332 2°55.123 19.287 0.026257 0.146314 3.456911
2009-09-28 10:11:58 51°14.34 2°55.109 19.286 0.026257 0.146314 3.456911
2009-09-28 10:12:03 51°14.347 2°55.096 19.288 0.026257 0.146314 3.456911
2009-09-28 10:12:08 51°14.355 2°55.082 19.287 0.026257 0.146317 3.456911
2009-09-28 10:12:13 51°14.363 2°55.068 19.2985 0.026257 0.146317 3.456911
2009-09-28 10:12:18 51°14.371 2°55.055 19.2867 0.026257 0.146311 3.456911
2009-09-28 10:12:23 51°14.379 2°55.041 19.2843 0.026257 0.146311 3.456911
2009-09-28 10:12:28 51°14.387 2°55.028 19.2808 0.026257 0.146311 3.456911
2009-09-28 10:12:33 51°14.396 2°55.015 19.2882 0.026257 0.146314 3.456911
2009-09-28 10:12:38 51°14.405 2°55.002 19.2986 0.026257 0.146314 3.456911
2009-09-28 10:12:43 51°14.414 2°54.989 19.2937 0.026257 0.146324 3.456911
2009-09-28 10:12:48 51°14.423 2°54.977 19.2919 0.026257 0.146329 3.456911
2009-09-28 10:12:53 51°14.433 2°54.965 19.2988 0.026257 0.146324 3.456911
2009-09-28 10:12:58 51°14.443 2°54.953 19.3102 0.026257 0.146324 3.456911
2009-09-28 10:13:03 51°14.454 2°54.942 19.3075 0.026257 0.146332 3.456911
2009-09-28 10:13:08 51°14.465 2°54.931 19.3018 0.026257 0.146337 3.456911
2009-09-28 10:13:13 51°14.476 2°54.92 19.3132 0.026257 0.146339 3.456911
2009-09-28 10:13:18 51°14.488 2°54.909 19.3008 0.026257 0.146334 3.456911
2009-09-28 10:13:23 51°14.499 2°54.898 19.2948 0.026257 0.146339 3.456911
2009-09-28 10:13:28 51°14.511 2°54.886 19.2671 0.026257 0.146339 3.456911
2009-09-28 10:13:33 51°14.523 2°54.875 19.2959 0.026257 0.146342 3.456911
2009-09-28 10:13:38 51°14.535 2°54.864 19.2941 0.026257 0.146337 3.456911
2009-09-28 10:13:43 51°14.547 2°54.854 19.2864 0.026257 0.146344 3.456911
2009-09-28 10:13:48 51°14.559 2°54.843 19.3165 0.026257 0.146357 3.456911
2009-09-28 10:13:53 51°14.572 2°54.834 19.2802 0.026257 0.146352 3.456911
2009-09-28 10:13:58 51°14.584 2°54.823 19.2975 0.026257 0.146352 3.456911
2009-09-28 10:14:03 51°14.597 2°54.814 19.3073 0.026257 0.14635 3.456911
2009-09-28 10:14:08 51°14.61 2°54.804 19.3255 0.026257 0.146355 3.456911
2009-09-28 10:14:12 51°14.621 2°54.796 19.3245 0.026257 0.14636 3.456911
2009-09-28 10:14:18 51°14.637 2°54.784 19.2929 0.026257 0.14636 3.456911
2009-09-28 10:14:23 51°14.65 2°54.774 19.3172 0.026257 0.146362 3.456911
2009-09-28 10:14:28 51°14.663 2°54.764 19.2905 0.026257 0.146362 3.456911
2009-09-28 10:14:32 51°14.674 2°54.756 19.2814 0.026257 0.146362 3.456911
2009-09-28 10:14:38 51°14.69 2°54.743 19.3154 0.026257 0.146355 3.456911
2009-09-28 10:14:43 51°14.704 2°54.733 19.3261 0.026257 0.146357 3.456911
2009-09-28 10:14:48 51°14.718 2°54.723 19.3079 0.026257 0.14636 3.456911
2009-09-28 10:14:53 51°14.732 2°54.713 19.3194 0.026257 0.146362 3.456911
2009-09-28 10:14:58 51°14.746 2°54.702 19.3189 0.026257 0.146362 3.456911
2009-09-28 10:15:03 51°14.759 2°54.692 19.2712 0.026257 0.14636 3.456911
2009-09-28 10:15:08 51°14.773 2°54.681 19.308 0.026257 0.146355 3.456911
2009-09-28 10:15:13 51°14.787 2°54.671 19.3093 0.026257 0.146355 3.456911
2009-09-28 10:15:18 51°14.801 2°54.66 19.3228 0.026257 0.146365 3.456911
2009-09-28 10:15:23 51°14.814 2°54.65 19.3169 0.026257 0.14637 3.456911
2009-09-28 10:15:28 51°14.828 2°54.64 19.3012 0.026257 0.14637 3.456911
2009-09-28 10:15:33 51°14.842 2°54.629 19.3099 0.026257 0.14637 3.456911
2009-09-28 10:15:38 51°14.856 2°54.618 19.3055 0.026257 0.146367 3.456911
2009-09-28 10:15:43 51°14.869 2°54.608 19.3375 0.026257 0.146357 3.456911
2009-09-28 10:15:48 51°14.883 2°54.597 19.3162 0.026257 0.146357 3.456911
2009-09-28 10:15:53 51°14.897 2°54.587 19.3206 0.026257 0.146367 3.456911
2009-09-28 10:15:58 51°14.911 2°54.576 19.3326 0.026257 0.146367 3.456911
2009-09-28 10:16:03 51°14.924 2°54.565 19.3223 0.026257 0.146377 3.456911
2009-09-28 10:16:08 51°14.938 2°54.554 19.304 0.026257 0.146375 3.456911
2009-09-28 10:16:13 51°14.952 2°54.542 19.3301 0.026257 0.146362 3.456911
2009-09-28 10:16:18 51°14.965 2°54.53 19.318 0.026257 0.14637 3.456911
2009-09-28 10:16:23 51°14.979 2°54.518 19.3328 0.026257 0.14637 3.456911
2009-09-28 10:16:28 51°14.992 2°54.506 19.3329 0.026257 0.14637 3.456911
2009-09-28 10:16:32 51°15.003 2°54.497 19.3072 0.026257 0.14637 3.456911
2009-09-28 10:16:38 51°15.018 2°54.482 19.3027 0.026257 0.146377 3.456911
2009-09-28 10:16:43 51°15.032 2°54.47 19.3287 0.026257 0.146375 3.456911
2009-09-28 10:16:48 51°15.045 2°54.457 19.3145 0.026257 0.146372 3.456911
2009-09-28 10:16:52 51°15.055 2°54.447 19.3245 0.026257 0.14637 3.456911
2009-09-28 10:16:58 51°15.071 2°54.432 19.3352 0.026257 0.14637 3.456911
2009-09-28 10:17:03 51°15.084 2°54.42 19.3258 0.026257 0.14637 3.456911
2009-09-28 10:17:08 51°15.097 2°54.407 19.3423 0.026257 0.146372 3.456911
2009-09-28 10:17:13 51°15.11 2°54.395 19.3423 0.026257 0.146377 3.456911
2009-09-28 10:17:18 51°15.123 2°54.382 19.3302 0.026257 0.146377 3.456911
2009-09-28 10:17:23 51°15.135 2°54.369 19.3201 0.026257 0.146383 3.456911
2009-09-28 10:17:28 51°15.148 2°54.357 19.3323 0.026257 0.146383 3.456911
2009-09-28 10:17:33 51°15.162 2°54.345 19.3109 0.026257 0.14638 3.456911
2009-09-28 10:17:38 51°15.174 2°54.332 19.2926 0.026257 0.14638 3.456911
2009-09-28 10:17:43 51°15.187 2°54.32 19.3411 0.026257 0.146383 3.456911
2009-09-28 10:17:48 51°15.201 2°54.308 19.3401 0.026257 0.146385 3.456911
2009-09-28 10:17:53 51°15.214 2°54.296 19.3078 0.026257 0.146385 3.456911
2009-09-28 10:17:58 51°15.227 2°54.284 19.3211 0.026257 0.146385 3.456911
2009-09-28 10:18:03 51°15.24 2°54.272 19.3338 0.026257 0.146377 3.456911
2009-09-28 10:18:08 51°15.253 2°54.26 19.3318 0.026257 0.146372 3.456911
2009-09-28 10:18:13 51°15.266 2°54.249 19.3339 0.026257 0.146383 3.456911
2009-09-28 10:18:18 51°15.28 2°54.237 19.3446 0.026257 0.146388 3.456911
2009-09-28 10:18:23 51°15.294 2°54.225 19.3505 0.026257 0.14639 3.456911
2009-09-28 10:18:28 51°15.307 2°54.214 19.3505 0.026257 0.14639 3.456911
2009-09-28 10:18:33 51°15.32 2°54.203 19.3301 0.026257 0.146395 3.456911
2009-09-28 10:18:38 51°15.334 2°54.191 19.3302 0.026257 0.14639 3.491735
2009-09-28 10:18:43 51°15.347 2°54.179 19.3369 0.026257 0.146388 3.456911
2009-09-28 10:18:48 51°15.361 2°54.168 19.3324 0.026257 0.14639 3.456911
2009-09-28 10:18:52 51°15.371 2°54.159 19.3391 0.026257 0.146388 3.456911
2009-09-28 10:18:58 51°15.387 2°54.144 19.346 0.026257 0.146388 3.456911
2009-09-28 10:19:03 51°15.401 2°54.133 19.3616 0.026257 0.14639 3.456911
2009-09-28 10:19:08 51°15.414 2°54.121 19.3587 0.026257 0.146393 3.456911
2009-09-28 10:19:13 51°15.427 2°54.109 19.3538 0.026257 0.146393 3.456911
2009-09-28 10:19:18 51°15.441 2°54.097 19.333 0.026257 0.146393 3.456911
2009-09-28 10:19:23 51°15.454 2°54.085 19.3431 0.026257 0.146388 3.456911
2009-09-28 10:19:28 51°15.467 2°54.073 19.3554 0.026257 0.146388 3.456911
2009-09-28 10:19:33 51°15.481 2°54.061 19.3394 0.026257 0.146388 3.456911
2009-09-28 10:19:38 51°15.494 2°54.05 19.3547 0.026257 0.146388 3.456911
2009-09-28 10:19:43 51°15.507 2°54.038 19.3562 0.026257 0.146385 3.456911
2009-09-28 10:19:48 51°15.521 2°54.027 19.3705 0.026257 0.146377 3.456911
2009-09-28 10:19:53 51°15.534 2°54.015 19.3613 0.026257 0.146377 3.456911
2009-09-28 10:19:58 51°15.548 2°54.003 19.3305 0.026257 0.146377 3.456911
2009-09-28 10:20:03 51°15.561 2°53.991 19.3637 0.026257 0.146383 3.456911
2009-09-28 10:20:08 51°15.574 2°53.98 19.3598 0.026257 0.14638 3.456911
2009-09-28 10:20:13 51°15.588 2°53.968 19.3647 0.026257 0.146388 3.456911
2009-09-28 10:20:18 51°15.601 2°53.957 19.3523 0.026257 0.146393 3.491735
2009-09-28 10:20:23 51°15.614 2°53.945 19.3474 0.026257 0.14639 3.456911
2009-09-28 10:20:28 51°15.628 2°53.933 19.3656 0.026257 0.14639 3.456911
2009-09-28 10:20:33 51°15.641 2°53.921 19.3614 0.026257 0.146388 3.491735
2009-09-28 10:20:38 51°15.654 2°53.91 19.3565 0.026257 0.146385 3.491735
2009-09-28 10:20:43 51°15.668 2°53.898 19.3497 0.026257 0.146385 3.456911
2009-09-28 10:20:48 51°15.681 2°53.886 19.3636 0.026257 0.146388 3.491735
2009-09-28 10:20:53 51°15.694 2°53.874 19.3547 0.026257 0.146393 3.491735
2009-09-28 10:20:58 51°15.708 2°53.863 19.3546 0.026257 0.146393 3.491735
2009-09-28 10:21:03 51°15.721 2°53.851 19.3459 0.026257 0.146395 3.456911
2009-09-28 10:21:08 51°15.734 2°53.839 19.3541 0.026257 0.14639 3.456911
2009-09-28 10:21:13 51°15.747 2°53.827 19.3497 0.026257 0.14639 3.491735
2009-09-28 10:21:18 51°15.761 2°53.815 19.3653 0.026257 0.146388 3.456911
2009-09-28 10:21:23 51°15.774 2°53.803 19.3712 0.026257 0.146388 3.491735
2009-09-28 10:21:28 51°15.787 2°53.791 19.3716 0.026257 0.146388 3.491735
2009-09-28 10:21:33 51°15.801 2°53.779 19.3756 0.026257 0.146388 3.456911
2009-09-28 10:21:38 51°15.814 2°53.767 19.3693 0.026257 0.14638 3.456911
2009-09-28 10:21:43 51°15.828 2°53.755 19.3579 0.026257 0.146388 3.491735
2009-09-28 10:21:48 51°15.841 2°53.743 19.3688 0.026257 0.146395 3.456911
2009-09-28 10:21:53 51°15.854 2°53.731 19.3752 0.026257 0.146398 3.491735
2009-09-28 10:21:58 51°15.867 2°53.72 19.3806 0.026257 0.146398 3.491735
2009-09-28 10:22:03 51°15.881 2°53.708 19.3703 0.026257 0.146393 3.456911
2009-09-28 10:22:08 51°15.894 2°53.696 19.3688 0.026257 0.146388 3.456911
2009-09-28 10:22:13 51°15.908 2°53.684 19.3684 0.026257 0.146388 3.491735
2009-09-28 10:22:18 51°15.921 2°53.672 19.3824 0.026257 0.146385 3.491735
2009-09-28 10:22:23 51°15.934 2°53.66 19.3733 0.026257 0.146385 3.456911
2009-09-28 10:22:28 51°15.948 2°53.649 19.3806 0.026257 0.146385 3.456911
2009-09-28 10:22:33 51°15.961 2°53.637 19.3851 0.026257 0.146383 3.491735
2009-09-28 10:22:38 51°15.975 2°53.625 19.3647 0.026257 0.14638 3.491735
2009-09-28 10:22:43 51°15.988 2°53.613 19.3855 0.026257 0.146377 3.491735
2009-09-28 10:22:48 51°16.001 2°53.601 19.3927 0.026257 0.146375 3.491735
2009-09-28 10:22:53 51°16.015 2°53.589 19.3846 0.026257 0.146377 3.491735
2009-09-28 10:22:58 51°16.028 2°53.577 19.3697 0.026257 0.146377 3.491735
2009-09-28 10:23:03 51°16.041 2°53.565 19.3802 0.026257 0.146377 3.491735
2009-09-28 10:23:08 51°16.055 2°53.553 19.3799 0.026257 0.146377 3.491735
2009-09-28 10:23:13 51°16.068 2°53.541 19.388 0.026257 0.146377 3.456911
2009-09-28 10:23:18 51°16.081 2°53.53 19.3743 0.026257 0.146375 3.491735
2009-09-28 10:23:23 51°16.095 2°53.518 19.3904 0.026257 0.146377 3.491735
2009-09-28 10:23:28 51°16.108 2°53.506 19.3828 0.026257 0.146377 3.491735
2009-09-28 10:23:32 51°16.119 2°53.497 19.3873 0.026257 0.146383 3.491735
2009-09-28 10:23:38 51°16.135 2°53.482 19.3857 0.026257 0.14638 3.491735
2009-09-28 10:23:43 51°16.149 2°53.471 19.3814 0.026257 0.146375 3.491735
2009-09-28 10:23:48 51°16.162 2°53.459 19.3969 0.026257 0.146372 3.491735
2009-09-28 10:23:53 51°16.176 2°53.447 19.4006 0.026257 0.146367 3.491735
2009-09-28 10:23:58 51°16.189 2°53.435 19.3983 0.026257 0.146367 3.491735
2009-09-28 10:24:03 51°16.203 2°53.424 19.3793 0.026257 0.14637 3.491735
2009-09-28 10:24:08 51°16.216 2°53.412 19.4081 0.026257 0.146367 3.491735
2009-09-28 10:24:13 51°16.23 2°53.4 19.4082 0.026257 0.146362 3.491735
2009-09-28 10:24:18 51°16.243 2°53.388 19.3987 0.026257 0.146367 3.491735
2009-09-28 10:24:23 51°16.257 2°53.376 19.3795 0.026257 0.146362 3.491735
2009-09-28 10:24:28 51°16.27 2°53.364 19.3934 0.026257 0.146362 3.491735
2009-09-28 10:24:33 51°16.284 2°53.353 19.4082 0.026257 0.146357 3.491735
2009-09-28 10:24:38 51°16.297 2°53.341 19.3891 0.026257 0.146362 3.491735
2009-09-28 10:24:43 51°16.311 2°53.329 19.4053 0.026257 0.146365 3.491735
2009-09-28 10:24:48 51°16.324 2°53.317 19.3996 0.026257 0.14637 3.491735
2009-09-28 10:24:53 51°16.338 2°53.306 19.3965 0.026257 0.146362 3.491735
2009-09-28 10:24:58 51°16.351 2°53.294 19.4167 0.026257 0.146362 3.491735
2009-09-28 10:25:03 51°16.364 2°53.282 19.4014 0.026257 0.146365 3.491735
2009-09-28 10:25:08 51°16.378 2°53.27 19.402 0.026257 0.146365 3.491735
2009-09-28 10:25:13 51°16.391 2°53.258 19.4108 0.026257 0.14636 3.491735
2009-09-28 10:25:18 51°16.405 2°53.246 19.4043 0.026257 0.146357 3.491735
2009-09-28 10:25:23 51°16.418 2°53.234 19.3757 0.026257 0.14635 3.491735
2009-09-28 10:25:28 51°16.431 2°53.222 19.407 0.026257 0.14635 3.491735
2009-09-28 10:25:33 51°16.445 2°53.211 19.4155 0.026257 0.146347 3.491735
2009-09-28 10:25:38 51°16.458 2°53.199 19.4011 0.026257 0.14635 3.491735
2009-09-28 10:25:43 51°16.472 2°53.187 19.4232 0.026257 0.146342 3.491735
2009-09-28 10:25:48 51°16.485 2°53.175 19.4059 0.026257 0.146344 3.491735
2009-09-28 10:25:53 51°16.498 2°53.163 19.4064 0.026257 0.146355 3.491735
2009-09-28 10:25:58 51°16.512 2°53.151 19.4125 0.026257 0.146355 3.491735
2009-09-28 10:26:03 51°16.525 2°53.139 19.4337 0.026257 0.146342 3.491735
2009-09-28 10:26:08 51°16.539 2°53.128 19.4398 0.026257 0.146342 3.491735
2009-09-28 10:26:12 51°16.549 2°53.118 19.424 0.026257 0.146339 3.491735
2009-09-28 10:26:18 51°16.566 2°53.104 19.4135 0.026257 0.146339 3.491735
2009-09-28 10:26:23 51°16.579 2°53.091 19.3965 0.026257 0.146339 3.491735
2009-09-28 10:26:28 51°16.592 2°53.079 19.4077 0.026257 0.146339 3.491735
2009-09-28 10:26:33 51°16.605 2°53.068 19.4113 0.026257 0.146342 3.491735
2009-09-28 10:26:38 51°16.619 2°53.056 19.3937 0.026257 0.146344 3.491735
2009-09-28 10:26:43 51°16.632 2°53.044 19.4065 0.026257 0.146342 3.491735
2009-09-28 10:26:48 51°16.646 2°53.032 19.4186 0.026257 0.146337 3.491735
2009-09-28 10:26:53 51°16.659 2°53.021 19.4346 0.026257 0.146334 3.491735
2009-09-28 10:26:58 51°16.673 2°53.009 19.4182 0.026257 0.146334 3.491735
2009-09-28 10:27:03 51°16.686 2°52.997 19.4274 0.026257 0.146329 3.491735
2009-09-28 10:27:08 51°16.7 2°52.986 19.4313 0.026257 0.146332 3.491735
2009-09-28 10:27:13 51°16.714 2°52.974 19.4454 0.026257 0.146332 3.491735
2009-09-28 10:27:18 51°16.727 2°52.963 19.426 0.026257 0.146334 3.491735
2009-09-28 10:27:23 51°16.741 2°52.952 19.4029 0.026257 0.146324 3.491735
2009-09-28 10:27:28 51°16.755 2°52.94 19.4411 0.026257 0.146324 3.491735
2009-09-28 10:27:33 51°16.768 2°52.929 19.4263 0.026257 0.146309 3.491735
2009-09-28 10:27:38 51°16.782 2°52.917 19.4345 0.026257 0.146324 3.491735
2009-09-28 10:27:43 51°16.795 2°52.905 19.4301 0.026257 0.146329 3.491735
2009-09-28 10:27:48 51°16.808 2°52.894 19.4402 0.026257 0.146327 3.491735
2009-09-28 10:27:53 51°16.822 2°52.882 19.4449 0.026257 0.146319 3.491735
2009-09-28 10:27:58 51°16.835 2°52.871 19.4318 0.026257 0.146319 3.491735
2009-09-28 10:28:03 51°16.848 2°52.859 19.4279 0.026257 0.146317 3.491735
2009-09-28 10:28:08 51°16.862 2°52.847 19.4432 0.026257 0.146314 3.491735
2009-09-28 10:28:13 51°16.875 2°52.835 19.44 0.026257 0.146314 3.526559
2009-09-28 10:28:18 51°16.889 2°52.823 19.4461 0.026257 0.146314 3.491735
2009-09-28 10:28:23 51°16.902 2°52.812 19.4346 0.026257 0.146306 3.491735
2009-09-28 10:28:28 51°16.916 2°52.8 19.4448 0.026257 0.146306 3.491735
2009-09-28 10:28:33 51°16.929 2°52.788 19.4547 0.02636 0.146876 3.491735
2009-09-28 10:28:38 51°16.943 2°52.777 19.4456 0.02636 0.146876 3.491735
2009-09-28 10:28:43 51°16.957 2°52.765 19.4171 0.02636 0.146876 3.491735
2009-09-28 10:28:48 51°16.97 2°52.754 19.4386 0.026257 0.146291 3.491735
2009-09-28 10:28:53 51°16.984 2°52.742 19.4422 0.02636 0.146866 3.491735
2009-09-28 10:28:58 51°16.998 2°52.731 19.4543 0.02636 0.146866 3.491735
2009-09-28 10:29:03 51°17.012 2°52.721 19.4168 0.02636 0.146861 3.491735
2009-09-28 10:29:08 51°17.026 2°52.711 19.4455 0.026257 0.146276 3.491735
2009-09-28 10:29:13 51°17.04 2°52.701 19.4583 0.02636 0.146851 3.491735
2009-09-28 10:29:18 51°17.055 2°52.691 19.4525 0.02636 0.146861 3.491735
2009-09-28 10:29:23 51°17.069 2°52.682 19.436 0.02636 0.146851 3.491735
2009-09-28 10:29:28 51°17.083 2°52.672 19.4659 0.02636 0.146851 3.491735
2009-09-28 10:29:33 51°17.097 2°52.663 19.4642 0.02636 0.146864 3.491735
2009-09-28 10:29:38 51°17.111 2°52.654 19.4694 0.02636 0.146879 3.526559
2009-09-28 10:29:43 51°17.125 2°52.645 19.4162 0.02636 0.146864 3.491735
2009-09-28 10:29:48 51°17.14 2°52.635 19.4451 0.02636 0.146861 3.491735
2009-09-28 10:29:53 51°17.154 2°52.626 19.4548 0.02636 0.146869 3.526559
2009-09-28 10:29:58 51°17.168 2°52.618 19.449 0.02636 0.146869 3.526559
2009-09-28 10:30:03 51°17.183 2°52.609 19.4508 0.02636 0.146856 3.491735
2009-09-28 10:30:08 51°17.197 2°52.601 19.4579 0.02636 0.146853 3.526559
2009-09-28 10:30:13 51°17.212 2°52.592 19.4441 0.02636 0.146851 3.526559
2009-09-28 10:30:18 51°17.227 2°52.584 19.4464 0.02636 0.146825 3.491735
2009-09-28 10:30:23 51°17.241 2°52.577 19.4424 0.02636 0.146836 3.526559
2009-09-28 10:30:28 51°17.257 2°52.571 19.4458 0.02636 0.146836 3.526559
2009-09-28 10:30:32 51°17.269 2°52.567 19.4489 0.02636 0.146828 3.526559
2009-09-28 10:30:38 51°17.287 2°52.561 19.4687 0.02636 0.14683 3.526559
2009-09-28 10:30:43 51°17.302 2°52.557 19.4279 0.02636 0.146823 3.526559
2009-09-28 10:30:48 51°17.318 2°52.553 19.4499 0.02636 0.146815 3.526559
2009-09-28 10:30:53 51°17.333 2°52.551 19.4585 0.02636 0.146828 3.491735
2009-09-28 10:30:58 51°17.348 2°52.55 19.4683 0.02636 0.146828 3.491735
2009-09-28 10:31:03 51°17.364 2°52.549 19.4564 0.02636 0.14683 3.526559
2009-09-28 10:31:08 51°17.379 2°52.549 19.4596 0.02636 0.146843 3.526559
2009-09-28 10:31:13 51°17.394 2°52.549 19.447 0.02636 0.146843 3.526559
2009-09-28 10:31:18 51°17.41 2°52.55 19.4645 0.02636 0.146838 3.526559
2009-09-28 10:31:23 51°17.426 2°52.552 19.445 0.026566 0.14798 3.526559
2009-09-28 10:31:28 51°17.441 2°52.553 19.4837 0.026566 0.14798 3.526559
2009-09-28 10:31:33 51°17.457 2°52.555 19.4723 0.026463 0.14741 3.526559
2009-09-28 10:31:38 51°17.472 2°52.556 19.4736 0.026463 0.147415 3.526559
2009-09-28 10:31:43 51°17.487 2°52.559 19.4487 0.026463 0.14741 3.526559
2009-09-28 10:31:48 51°17.503 2°52.561 19.4787 0.026463 0.147408 3.526559
2009-09-28 10:31:53 51°17.518 2°52.564 19.4751 0.026463 0.14741 3.526559
2009-09-28 10:31:58 51°17.534 2°52.566 19.4687 0.026463 0.14741 3.526559
2009-09-28 10:32:03 51°17.549 2°52.569 19.4724 0.026463 0.147408 3.526559
2009-09-28 10:32:08 51°17.565 2°52.571 19.4689 0.026463 0.147405 3.526559
2009-09-28 10:32:13 51°17.581 2°52.574 19.4341 0.026463 0.147403 3.526559
2009-09-28 10:32:18 51°17.596 2°52.576 19.468 0.026463 0.147405 3.526559
2009-09-28 10:32:23 51°17.612 2°52.579 19.4781 0.026463 0.147403 3.526559
2009-09-28 10:32:28 51°17.627 2°52.582 19.4825 0.026463 0.147403 3.526559
2009-09-28 10:32:33 51°17.643 2°52.585 19.4631 0.026463 0.1474 3.526559
2009-09-28 10:32:38 51°17.659 2°52.588 19.466 0.026463 0.147395 3.526559
2009-09-28 10:32:43 51°17.674 2°52.591 19.4641 0.026463 0.147395 3.526559
2009-09-28 10:32:48 51°17.69 2°52.594 19.4816 0.02636 0.14682 3.526559
2009-09-28 10:32:52 51°17.703 2°52.596 19.4769 0.02636 0.14682 3.526559
2009-09-28 10:32:58 51°17.721 2°52.6 19.4791 0.02636 0.14682 3.526559
2009-09-28 10:33:03 51°17.737 2°52.603 19.4785 0.02636 0.146818 3.526559
2009-09-28 10:33:08 51°17.753 2°52.605 19.4912 0.02636 0.146815 3.526559
2009-09-28 10:33:13 51°17.769 2°52.609 19.5032 0.02636 0.146815 3.526559
2009-09-28 10:33:18 51°17.784 2°52.611 19.4803 0.026463 0.14739 3.526559
2009-09-28 10:33:23 51°17.8 2°52.614 19.4738 0.02636 0.14681 3.526559
2009-09-28 10:33:28 51°17.816 2°52.617 19.4824 0.02636 0.14681 3.526559
2009-09-28 10:33:33 51°17.832 2°52.619 19.4691 0.02636 0.146805 3.526559
2009-09-28 10:33:38 51°17.847 2°52.622 19.4898 0.02636 0.146805 3.526559
2009-09-28 10:33:43 51°17.863 2°52.624 19.5011 0.02636 0.146808 3.526559
2009-09-28 10:33:48 51°17.879 2°52.626 19.4839 0.026463 0.147382 3.526559
2009-09-28 10:33:53 51°17.894 2°52.629 19.4938 0.02636 0.146802 3.526559
2009-09-28 10:33:58 51°17.91 2°52.631 19.5022 0.02636 0.146802 3.526559
2009-09-28 10:34:03 51°17.926 2°52.634 19.4967 0.026463 0.147385 3.526559
2009-09-28 10:34:08 51°17.942 2°52.636 19.4911 0.026463 0.147364 3.526559
2009-09-28 10:34:13 51°17.957 2°52.638 19.4942 0.026463 0.147367 3.561383
2009-09-28 10:34:18 51°17.973 2°52.641 19.4817 0.026463 0.147364 3.526559
2009-09-28 10:34:23 51°17.989 2°52.643 19.4936 0.026463 0.147369 3.561383
2009-09-28 10:34:28 51°18.005 2°52.645 19.4714 0.026463 0.147369 3.561383
2009-09-28 10:34:33 51°18.021 2°52.647 19.4937 0.026463 0.147367 3.526559
2009-09-28 10:34:38 51°18.036 2°52.649 19.5082 0.026463 0.147367 3.561383
2009-09-28 10:34:43 51°18.052 2°52.651 19.4772 0.026463 0.147367 3.561383
2009-09-28 10:34:48 51°18.068 2°52.653 19.5027 0.026463 0.147362 3.561383
2009-09-28 10:34:53 51°18.084 2°52.655 19.4912 0.026463 0.147359 3.526559
2009-09-28 10:34:58 51°18.099 2°52.656 19.5057 0.026463 0.147359 3.526559
2009-09-28 10:35:03 51°18.115 2°52.659 19.5073 0.026463 0.147357 3.561383
2009-09-28 10:35:08 51°18.131 2°52.661 19.4642 0.026463 0.147354 3.561383
2009-09-28 10:35:13 51°18.147 2°52.662 19.5116 0.026463 0.147354 3.561383
2009-09-28 10:35:18 51°18.163 2°52.664 19.5125 0.026463 0.147349 3.561383
2009-09-28 10:35:23 51°18.179 2°52.666 19.5131 0.026463 0.147334 3.561383
2009-09-28 10:35:28 51°18.194 2°52.668 19.5092 0.026463 0.147334 3.561383
2009-09-28 10:35:33 51°18.21 2°52.67 19.5072 0.026463 0.147336 3.561383
2009-09-28 10:35:38 51°18.226 2°52.672 19.5117 0.026463 0.147349 3.561383
2009-09-28 10:35:43 51°18.242 2°52.674 19.5191 0.026463 0.147352 3.561383
2009-09-28 10:35:48 51°18.258 2°52.675 19.5185 0.026463 0.147354 3.561383
2009-09-28 10:35:53 51°18.273 2°52.677 19.4966 0.026463 0.147357 3.561383
2009-09-28 10:35:58 51°18.289 2°52.678 19.5129 0.026463 0.147357 3.561383
2009-09-28 10:36:03 51°18.305 2°52.68 19.4962 0.026463 0.147364 3.561383
2009-09-28 10:36:08 51°18.321 2°52.681 19.505 0.026463 0.147375 3.561383
2009-09-28 10:36:13 51°18.337 2°52.683 19.4903 0.026463 0.147369 3.561383
2009-09-28 10:36:18 51°18.353 2°52.684 19.5249 0.026463 0.147369 3.561383
2009-09-28 10:36:23 51°18.368 2°52.686 19.503 0.026463 0.147375 3.561383
2009-09-28 10:36:28 51°18.384 2°52.688 19.5312 0.026463 0.147375 3.561383
2009-09-28 10:36:33 51°18.4 2°52.69 19.5132 0.026463 0.147377 3.561383
2009-09-28 10:36:38 51°18.416 2°52.691 19.5219 0.026463 0.147372 3.561383
2009-09-28 10:36:43 51°18.432 2°52.693 19.5161 0.026463 0.147375 3.561383
2009-09-28 10:36:48 51°18.447 2°52.694 19.5295 0.026463 0.147372 3.561383
2009-09-28 10:36:53 51°18.463 2°52.696 19.5217 0.026463 0.147372 3.561383
2009-09-28 10:36:58 51°18.479 2°52.698 19.5287 0.026463 0.147372 3.561383
2009-09-28 10:37:03 51°18.495 2°52.699 19.5153 0.026463 0.147367 3.561383
2009-09-28 10:37:08 51°18.511 2°52.7 19.5328 0.026463 0.147369 3.561383
2009-09-28 10:37:13 51°18.526 2°52.702 19.5178 0.026463 0.147364 3.561383
2009-09-28 10:37:18 51°18.542 2°52.703 19.5156 0.026463 0.147362 3.561383
2009-09-28 10:37:23 51°18.558 2°52.705 19.5191 0.026463 0.147359 3.561383
2009-09-28 10:37:28 51°18.574 2°52.707 19.5112 0.026463 0.147359 3.561383
2009-09-28 10:37:33 51°18.589 2°52.708 19.5389 0.026463 0.147362 3.561383
2009-09-28 10:37:38 51°18.605 2°52.71 19.5417 0.026463 0.147362 3.561383
2009-09-28 10:37:43 51°18.621 2°52.711 19.5301 0.026463 0.147364 3.561383
2009-09-28 10:37:48 51°18.637 2°52.713 19.519 0.026463 0.147364 3.561383
2009-09-28 10:37:53 51°18.653 2°52.714 19.5096 0.026463 0.147369 3.561383
2009-09-28 10:37:58 51°18.668 2°52.716 19.5321 0.026463 0.147369 3.561383
2009-09-28 10:38:03 51°18.684 2°52.718 19.5367 0.026463 0.147362 3.561383
2009-09-28 10:38:08 51°18.699 2°52.719 19.5448 0.026463 0.147362 3.561383
2009-09-28 10:38:13 51°18.715 2°52.721 19.5458 0.026463 0.147364 3.561383
2009-09-28 10:38:18 51°18.731 2°52.722 19.5453 0.026463 0.147362 3.561383
2009-09-28 10:38:23 51°18.747 2°52.723 19.5413 0.026463 0.147359 3.561383
2009-09-28 10:38:28 51°18.763 2°52.725 19.5435 0.026463 0.147359 3.561383
2009-09-28 10:38:33 51°18.778 2°52.727 19.5497 0.026463 0.147344 3.561383
2009-09-28 10:38:38 51°18.794 2°52.728 19.5418 0.026463 0.147336 3.561383
2009-09-28 10:38:43 51°18.81 2°52.729 19.5369 0.026463 0.147336 3.561383
2009-09-28 10:38:48 51°18.825 2°52.73 19.5318 0.026463 0.147336 3.596207
2009-09-28 10:38:53 51°18.841 2°52.731 19.5334 0.026463 0.147352 3.561383
2009-09-28 10:38:58 51°18.856 2°52.733 19.5448 0.026463 0.147352 3.561383
2009-09-28 10:39:03 51°18.872 2°52.734 19.5308 0.026463 0.147352 3.561383
2009-09-28 10:39:08 51°18.888 2°52.735 19.5335 0.026463 0.147352 3.561383
2009-09-28 10:39:13 51°18.903 2°52.737 19.5466 0.026463 0.147352 3.596207
2009-09-28 10:39:18 51°18.919 2°52.738 19.5524 0.026463 0.147352 3.561383
2009-09-28 10:39:23 51°18.935 2°52.74 19.5605 0.026463 0.147352 3.561383
2009-09-28 10:39:28 51°18.951 2°52.741 19.5593 0.026463 0.147352 3.561383
2009-09-28 10:39:32 51°18.963 2°52.743 19.551 0.026463 0.147354 3.561383
2009-09-28 10:39:38 51°18.982 2°52.745 19.5363 0.026463 0.147349 3.596207
2009-09-28 10:39:43 51°18.998 2°52.746 19.557 0.026463 0.147341 3.561383
2009-09-28 10:39:48 51°19.013 2°52.748 19.5563 0.026463 0.147349 3.561383
2009-09-28 10:39:53 51°19.029 2°52.75 19.5452 0.026463 0.147359 3.596207
2009-09-28 10:39:58 51°19.045 2°52.751 19.5682 0.026463 0.147359 3.596207
2009-09-28 10:40:03 51°19.061 2°52.753 19.565 0.026463 0.147357 3.596207
2009-09-28 10:40:08 51°19.077 2°52.754 19.565 0.026463 0.147362 3.561383
2009-09-28 10:40:13 51°19.093 2°52.756 19.5735 0.026463 0.147359 3.596207
2009-09-28 10:40:18 51°19.108 2°52.758 19.5545 0.026463 0.147359 3.596207
2009-09-28 10:40:23 51°19.124 2°52.759 19.5728 0.026463 0.147354 3.561383
2009-09-28 10:40:28 51°19.14 2°52.761 19.5676 0.026463 0.147354 3.561383
2009-09-28 10:40:33 51°19.156 2°52.762 19.5663 0.026463 0.147359 3.596207
2009-09-28 10:40:38 51°19.172 2°52.764 19.5753 0.026463 0.147357 3.561383
2009-09-28 10:40:43 51°19.188 2°52.765 19.553 0.026463 0.147357 3.596207
2009-09-28 10:40:48 51°19.203 2°52.767 19.5745 0.026463 0.147352 3.596207
2009-09-28 10:40:53 51°19.219 2°52.769 19.5502 0.026463 0.147352 3.596207
2009-09-28 10:40:58 51°19.235 2°52.77 19.5601 0.026463 0.147352 3.596207
2009-09-28 10:41:03 51°19.25 2°52.772 19.5851 0.026463 0.147347 3.596207
2009-09-28 10:41:08 51°19.266 2°52.774 19.5569 0.026463 0.147349 3.596207
2009-09-28 10:41:13 51°19.282 2°52.775 19.5738 0.026463 0.147344 3.596207
2009-09-28 10:41:18 51°19.298 2°52.777 19.5766 0.026463 0.147344 3.596207
2009-09-28 10:41:23 51°19.314 2°52.778 19.5653 0.026463 0.147341 3.596207
2009-09-28 10:41:28 51°19.329 2°52.78 19.5732 0.026463 0.147341 3.596207
2009-09-28 10:41:33 51°19.345 2°52.782 19.5713 0.026463 0.147336 3.596207
2009-09-28 10:41:38 51°19.361 2°52.783 19.569 0.026463 0.147334 3.596207
2009-09-28 10:41:43 51°19.377 2°52.786 19.581 0.026463 0.147336 3.596207
2009-09-28 10:41:48 51°19.393 2°52.788 19.5892 0.026463 0.147339 3.596207
2009-09-28 10:41:52 51°19.406 2°52.79 19.5699 0.026463 0.147336 3.596207
2009-09-28 10:41:58 51°19.424 2°52.793 19.5716 0.026463 0.147336 3.596207
2009-09-28 10:42:03 51°19.44 2°52.796 19.5793 0.026463 0.147329 3.596207
2009-09-28 10:42:08 51°19.456 2°52.799 19.591 0.026463 0.147336 3.596207
2009-09-28 10:42:13 51°19.472 2°52.801 19.5667 0.026463 0.147341 3.596207
2009-09-28 10:42:18 51°19.487 2°52.804 19.5618 0.026463 0.147339 3.596207
2009-09-28 10:42:23 51°19.503 2°52.806 19.5839 0.026463 0.147318 3.596207
2009-09-28 10:42:28 51°19.518 2°52.809 19.5934 0.026463 0.147318 3.596207
2009-09-28 10:42:33 51°19.534 2°52.812 19.5949 0.026463 0.147308 3.596207
2009-09-28 10:42:38 51°19.55 2°52.816 19.5658 0.026463 0.147318 3.596207
2009-09-28 10:42:43 51°19.565 2°52.82 19.5859 0.026463 0.147331 3.596207
2009-09-28 10:42:48 51°19.581 2°52.824 19.5904 0.026463 0.147347 3.596207
2009-09-28 10:42:53 51°19.596 2°52.829 19.5914 0.026463 0.147347 3.596207
2009-09-28 10:42:58 51°19.612 2°52.834 19.601 0.026463 0.147347 3.596207
2009-09-28 10:43:03 51°19.627 2°52.839 19.601 0.026463 0.147362 3.596207
2009-09-28 10:43:08 51°19.643 2°52.844 19.6002 0.026463 0.147347 3.596207
2009-09-28 10:43:13 51°19.658 2°52.85 19.5825 0.026463 0.147339 3.596207
2009-09-28 10:43:18 51°19.674 2°52.855 19.6102 0.026463 0.147341 3.631031
2009-09-28 10:43:23 51°19.689 2°52.86 19.6152 0.026463 0.147362 3.596207
2009-09-28 10:43:28 51°19.705 2°52.866 19.6061 0.026463 0.147362 3.596207
2009-09-28 10:43:33 51°19.72 2°52.871 19.6073 0.026463 0.147367 3.596207
2009-09-28 10:43:38 51°19.736 2°52.877 19.5991 0.026463 0.147364 3.631031
2009-09-28 10:43:43 51°19.752 2°52.882 19.5995 0.026463 0.147369 3.596207
2009-09-28 10:43:48 51°19.767 2°52.888 19.6153 0.026463 0.147372 3.596207
2009-09-28 10:43:53 51°19.782 2°52.893 19.6141 0.026463 0.147367 3.631031
2009-09-28 10:43:58 51°19.798 2°52.899 19.6061 0.026463 0.147367 3.631031
2009-09-28 10:44:03 51°19.813 2°52.904 19.6079 0.026463 0.147369 3.631031
2009-09-28 10:44:08 51°19.829 2°52.91 19.6227 0.026463 0.147367 3.596207
2009-09-28 10:44:12 51°19.841 2°52.914 19.6185 0.026463 0.147369 3.631031
2009-09-28 10:44:18 51°19.86 2°52.921 19.6111 0.026463 0.147369 3.631031
2009-09-28 10:44:23 51°19.875 2°52.926 19.5991 0.026463 0.147367 3.631031
2009-09-28 10:44:28 51°19.89 2°52.932 19.6184 0.026463 0.147367 3.631031
2009-09-28 10:44:33 51°19.906 2°52.937 19.5951 0.026463 0.147354 3.596207
2009-09-28 10:44:38 51°19.921 2°52.942 19.6139 0.026463 0.147339 3.631031
2009-09-28 10:44:43 51°19.937 2°52.947 19.6052 0.026463 0.147324 3.596207
2009-09-28 10:44:48 51°19.953 2°52.953 19.6272 0.026463 0.147344 3.631031
2009-09-28 10:44:53 51°19.968 2°52.958 19.6279 0.026463 0.147347 3.631031
2009-09-28 10:44:58 51°19.984 2°52.964 19.6176 0.026463 0.147347 3.631031
2009-09-28 10:45:03 51°19.999 2°52.969 19.6204 0.026463 0.147359 3.596207
2009-09-28 10:45:08 51°20.015 2°52.974 19.6189 0.026463 0.147372 3.631031
2009-09-28 10:45:13 51°20.03 2°52.98 19.6225 0.026463 0.147364 3.596207
2009-09-28 10:45:18 51°20.046 2°52.986 19.6288 0.026463 0.147352 3.631031
2009-09-28 10:45:23 51°20.061 2°52.991 19.6176 0.026463 0.147339 3.631031
2009-09-28 10:45:28 51°20.077 2°52.997 19.6119 0.026463 0.147339 3.631031
2009-09-28 10:45:33 51°20.092 2°53.002 19.6269 0.026463 0.147341 3.631031
2009-09-28 10:45:38 51°20.108 2°53.007 19.6352 0.026463 0.147347 3.631031
2009-09-28 10:45:43 51°20.123 2°53.013 19.634 0.026463 0.147349 3.631031
2009-09-28 10:45:48 51°20.139 2°53.018 19.6291 0.026463 0.147352 3.631031
2009-09-28 10:45:53 51°20.154 2°53.023 19.6344 0.026463 0.147354 3.631031
2009-09-28 10:45:58 51°20.17 2°53.028 19.6237 0.026463 0.147354 3.631031
2009-09-28 10:46:03 51°20.185 2°53.034 19.6175 0.026463 0.147352 3.631031
2009-09-28 10:46:08 51°20.201 2°53.039 19.6479 0.026463 0.147352 3.631031
2009-09-28 10:46:13 51°20.216 2°53.044 19.6447 0.026463 0.147347 3.631031
2009-09-28 10:46:18 51°20.231 2°53.049 19.6357 0.026463 0.147344 3.631031
2009-09-28 10:46:23 51°20.247 2°53.054 19.6448 0.026463 0.147339 3.631031
2009-09-28 10:46:28 51°20.262 2°53.06 19.6372 0.026463 0.147339 3.631031
2009-09-28 10:46:33 51°20.278 2°53.065 19.6299 0.026463 0.147336 3.631031
2009-09-28 10:46:38 51°20.293 2°53.07 19.6341 0.026463 0.147336 3.631031
2009-09-28 10:46:43 51°20.309 2°53.075 19.6367 0.026463 0.147339 3.631031
2009-09-28 10:46:48 51°20.324 2°53.081 19.6338 0.026463 0.147334 3.631031
2009-09-28 10:46:53 51°20.34 2°53.086 19.6573 0.026463 0.147339 3.631031
2009-09-28 10:46:58 51°20.355 2°53.091 19.6499 0.026463 0.147339 3.631031
2009-09-28 10:47:03 51°20.371 2°53.096 19.6324 0.026463 0.147339 3.631031
2009-09-28 10:47:08 51°20.386 2°53.101 19.6432 0.026463 0.147336 3.631031
2009-09-28 10:47:13 51°20.402 2°53.106 19.6475 0.026463 0.147334 3.665855
2009-09-28 10:47:18 51°20.417 2°53.112 19.6614 0.026463 0.147336 3.631031
2009-09-28 10:47:23 51°20.433 2°53.117 19.6466 0.026463 0.147339 3.631031
2009-09-28 10:47:28 51°20.448 2°53.122 19.6591 0.026463 0.147339 3.631031
2009-09-28 10:47:33 51°20.464 2°53.127 19.6351 0.026463 0.147344 3.631031
2009-09-28 10:47:38 51°20.479 2°53.132 19.6513 0.026463 0.147347 3.665855
2009-09-28 10:47:43 51°20.494 2°53.137 19.6523 0.026463 0.147347 3.665855
2009-09-28 10:47:48 51°20.51 2°53.142 19.6606 0.026463 0.147357 3.665855
2009-09-28 10:47:53 51°20.526 2°53.147 19.6604 0.026463 0.147362 3.665855
2009-09-28 10:47:58 51°20.541 2°53.153 19.6442 0.026463 0.147362 3.665855
2009-09-28 10:48:03 51°20.556 2°53.157 19.6632 0.026463 0.147357 3.665855
2009-09-28 10:48:08 51°20.572 2°53.162 19.6486 0.026463 0.147354 3.665855
2009-09-28 10:48:13 51°20.587 2°53.167 19.653 0.026463 0.147349 3.665855
2009-09-28 10:48:18 51°20.603 2°53.173 19.6684 0.026463 0.147344 3.631031
2009-09-28 10:48:23 51°20.618 2°53.178 19.6603 0.026463 0.147349 3.665855
2009-09-28 10:48:28 51°20.634 2°53.183 19.6761 0.026463 0.147349 3.665855
2009-09-28 10:48:33 51°20.649 2°53.188 19.6665 0.026463 0.147349 3.665855
2009-09-28 10:48:38 51°20.664 2°53.193 19.637 0.026463 0.147344 3.665855
2009-09-28 10:48:43 51°20.68 2°53.198 19.6754 0.026463 0.147339 3.665855
2009-09-28 10:48:48 51°20.695 2°53.203 19.6542 0.026463 0.147341 3.665855
2009-09-28 10:48:53 51°20.711 2°53.208 19.6631 0.026463 0.147344 3.665855
2009-09-28 10:48:58 51°20.726 2°53.213 19.6667 0.026463 0.147344 3.665855
2009-09-28 10:49:03 51°20.742 2°53.218 19.6573 0.026463 0.147359 3.665855
2009-09-28 10:49:08 51°20.757 2°53.222 19.6649 0.026463 0.147359 3.665855
2009-09-28 10:49:13 51°20.773 2°53.226 19.6827 0.026463 0.147354 3.665855
2009-09-28 10:49:18 51°20.788 2°53.231 19.6759 0.026463 0.147347 3.665855
2009-09-28 10:49:23 51°20.804 2°53.234 19.6833 0.026463 0.147336 3.665855
2009-09-28 10:49:28 51°20.819 2°53.238 19.6542 0.026463 0.147336 3.665855
2009-09-28 10:49:33 51°20.835 2°53.241 19.6744 0.026463 0.147324 3.665855
2009-09-28 10:49:38 51°20.85 2°53.245 19.6744 0.026463 0.147341 3.665855
2009-09-28 10:49:43 51°20.865 2°53.248 19.6666 0.026463 0.147352 3.665855
2009-09-28 10:49:48 51°20.881 2°53.252 19.6816 0.026463 0.147359 3.665855
2009-09-28 10:49:53 51°20.897 2°53.255 19.6682 0.026463 0.147367 3.665855
2009-09-28 10:49:58 51°20.912 2°53.259 19.6766 0.026463 0.147367 3.665855
2009-09-28 10:50:03 51°20.928 2°53.262 19.673 0.026463 0.147369 3.665855
2009-09-28 10:50:08 51°20.943 2°53.266 19.6593 0.026463 0.147364 3.665855
2009-09-28 10:50:13 51°20.959 2°53.269 19.6797 0.026463 0.147354 3.665855
2009-09-28 10:50:18 51°20.974 2°53.273 19.6959 0.026463 0.147347 3.665855
2009-09-28 10:50:23 51°20.99 2°53.276 19.6702 0.026463 0.147349 3.665855
2009-09-28 10:50:28 51°21.005 2°53.28 19.6688 0.026463 0.147349 3.665855
2009-09-28 10:50:33 51°21.021 2°53.283 19.6842 0.026463 0.147344 3.665855
2009-09-28 10:50:38 51°21.036 2°53.287 19.6684 0.026463 0.147347 3.700679
2009-09-28 10:50:43 51°21.052 2°53.29 19.6779 0.026463 0.147341 3.665855
2009-09-28 10:50:48 51°21.068 2°53.294 19.6885 0.026463 0.147339 3.665855
2009-09-28 10:50:53 51°21.083 2°53.297 19.6938 0.026463 0.147339 3.665855
2009-09-28 10:50:58 51°21.099 2°53.301 19.69 0.026463 0.147339 3.665855
2009-09-28 10:51:03 51°21.114 2°53.304 19.6901 0.026463 0.147336 3.665855
2009-09-28 10:51:08 51°21.13 2°53.307 19.6888 0.026463 0.147339 3.665855
2009-09-28 10:51:13 51°21.145 2°53.311 19.6962 0.026463 0.147339 3.700679
2009-09-28 10:51:18 51°21.161 2°53.314 19.697 0.026463 0.147336 3.665855
2009-09-28 10:51:23 51°21.177 2°53.318 19.6745 0.026463 0.147336 3.665855
2009-09-28 10:51:28 51°21.192 2°53.321 19.6908 0.026463 0.147336 3.665855
2009-09-28 10:51:32 51°21.205 2°53.324 19.7012 0.026463 0.147331 3.700679
2009-09-28 10:51:38 51°21.223 2°53.328 19.6982 0.026463 0.147339 3.700679
2009-09-28 10:51:43 51°21.239 2°53.332 19.6982 0.026463 0.147341 3.665855
2009-09-28 10:51:48 51°21.255 2°53.336 19.69 0.026463 0.147341 3.665855
2009-09-28 10:51:53 51°21.27 2°53.339 19.6935 0.026463 0.147331 3.700679
2009-09-28 10:51:58 51°21.286 2°53.342 19.7066 0.026463 0.147331 3.700679
2009-09-28 10:52:03 51°21.302 2°53.346 19.6983 0.026463 0.147331 3.700679
2009-09-28 10:52:08 51°21.317 2°53.349 19.702 0.026463 0.147334 3.665855
2009-09-28 10:52:13 51°21.333 2°53.352 19.7135 0.026463 0.147331 3.700679
2009-09-28 10:52:18 51°21.348 2°53.355 19.7202 0.026463 0.147334 3.700679
2009-09-28 10:52:23 51°21.364 2°53.359 19.7109 0.026463 0.147331 3.700679
2009-09-28 10:52:28 51°21.38 2°53.362 19.7179 0.026463 0.147331 3.700679
2009-09-28 10:52:33 51°21.395 2°53.366 19.7169 0.026463 0.147329 3.700679
2009-09-28 10:52:38 51°21.411 2°53.368 19.7227 0.026463 0.147326 3.700679
2009-09-28 10:52:43 51°21.426 2°53.371 19.7026 0.026463 0.147326 3.700679
2009-09-28 10:52:48 51°21.442 2°53.373 19.7119 0.026463 0.147326 3.700679
2009-09-28 10:52:52 51°21.454 2°53.376 19.6942 0.026463 0.147329 3.700679
2009-09-28 10:52:58 51°21.473 2°53.379 19.7136 0.026463 0.147329 3.700679
2009-09-28 10:53:03 51°21.489 2°53.382 19.7274 0.026463 0.147334 3.700679
2009-09-28 10:53:08 51°21.504 2°53.386 19.7232 0.026463 0.147336 3.700679
2009-09-28 10:53:13 51°21.52 2°53.389 19.7325 0.026463 0.147334 3.700679
2009-09-28 10:53:18 51°21.535 2°53.392 19.7289 0.026463 0.147331 3.700679
2009-09-28 10:53:23 51°21.551 2°53.396 19.732 0.026463 0.147326 3.700679
2009-09-28 10:53:28 51°21.567 2°53.399 19.724 0.026463 0.147326 3.700679
2009-09-28 10:53:33 51°21.582 2°53.403 19.7162 0.026463 0.147329 3.700679
2009-09-28 10:53:38 51°21.598 2°53.406 19.7415 0.026463 0.147334 3.700679
2009-09-28 10:53:43 51°21.613 2°53.409 19.7211 0.026463 0.147329 3.700679
2009-09-28 10:53:48 51°21.629 2°53.412 19.7282 0.026463 0.147329 3.700679
2009-09-28 10:53:53 51°21.644 2°53.416 19.7126 0.026463 0.147331 3.700679
2009-09-28 10:53:58 51°21.66 2°53.419 19.7339 0.026463 0.147331 3.700679
2009-09-28 10:54:03 51°21.675 2°53.423 19.7368 0.026463 0.147329 3.700679
2009-09-28 10:54:08 51°21.691 2°53.426 19.7312 0.026463 0.147334 3.700679
2009-09-28 10:54:12 51°21.703 2°53.429 19.7441 0.026463 0.147339 3.700679
2009-09-28 10:54:18 51°21.722 2°53.433 19.7044 0.026463 0.147331 3.700679
2009-09-28 10:54:23 51°21.738 2°53.436 19.7077 0.026463 0.147331 3.700679
2009-09-28 10:54:28 51°21.753 2°53.439 19.7415 0.026463 0.147331 3.700679
2009-09-28 10:54:33 51°21.769 2°53.442 19.7367 0.026463 0.147336 3.700679
2009-09-28 10:54:38 51°21.784 2°53.446 19.7429 0.026463 0.147334 3.700679
2009-09-28 10:54:43 51°21.8 2°53.449 19.7409 0.026463 0.147339 3.735503
2009-09-28 10:54:48 51°21.815 2°53.452 19.7428 0.026463 0.147341 3.700679
2009-09-28 10:54:53 51°21.831 2°53.456 19.7562 0.026463 0.147347 3.700679
2009-09-28 10:54:58 51°21.847 2°53.459 19.7356 0.026463 0.147347 3.700679
2009-09-28 10:55:03 51°21.862 2°53.462 19.7509 0.026463 0.147339 3.735503
2009-09-28 10:55:08 51°21.878 2°53.465 19.739 0.026463 0.147336 3.700679
2009-09-28 10:55:13 51°21.893 2°53.469 19.7302 0.026463 0.147339 3.735503
2009-09-28 10:55:18 51°21.909 2°53.472 19.7465 0.026463 0.147341 3.700679
2009-09-28 10:55:23 51°21.925 2°53.475 19.7513 0.026463 0.147339 3.700679
2009-09-28 10:55:28 51°21.94 2°53.478 19.755 0.026463 0.147339 3.700679
2009-09-28 10:55:33 51°21.956 2°53.481 19.749 0.026463 0.147339 3.735503
2009-09-28 10:55:38 51°21.972 2°53.482 19.753 0.026463 0.147336 3.735503
2009-09-28 10:55:43 51°21.989 2°53.485 19.7591 0.026463 0.147334 3.700679
2009-09-28 10:55:48 51°22.004 2°53.487 19.7553 0.026463 0.147334 3.735503
2009-09-28 10:55:53 51°22.019 2°53.49 19.7504 0.026463 0.147329 3.735503
2009-09-28 10:55:58 51°22.035 2°53.493 19.7402 0.026463 0.147329 3.735503
2009-09-28 10:56:03 51°22.05 2°53.496 19.7438 0.026463 0.147326 3.735503
2009-09-28 10:56:08 51°22.065 2°53.499 19.7616 0.026463 0.147329 3.735503
2009-09-28 10:56:13 51°22.081 2°53.503 19.7563 0.026463 0.147336 3.735503
2009-09-28 10:56:18 51°22.096 2°53.506 19.7527 0.026463 0.147334 3.735503
2009-09-28 10:56:23 51°22.112 2°53.509 19.7639 0.026463 0.147331 3.735503
2009-09-28 10:56:28 51°22.127 2°53.513 19.7586 0.026463 0.147331 3.735503
2009-09-28 10:56:33 51°22.142 2°53.516 19.7566 0.026463 0.147329 3.735503
2009-09-28 10:56:38 51°22.158 2°53.521 19.7581 0.026463 0.147321 3.735503
2009-09-28 10:56:43 51°22.173 2°53.524 19.7778 0.026463 0.147321 3.735503
2009-09-28 10:56:48 51°22.189 2°53.528 19.7769 0.026463 0.147326 3.735503
2009-09-28 10:56:53 51°22.204 2°53.532 19.7707 0.026463 0.147329 3.735503
2009-09-28 10:56:58 51°22.22 2°53.535 19.7706 0.026463 0.147329 3.735503
2009-09-28 10:57:03 51°22.235 2°53.539 19.7726 0.026463 0.147331 3.735503
2009-09-28 10:57:08 51°22.251 2°53.543 19.7457 0.026463 0.147329 3.735503
2009-09-28 10:57:13 51°22.266 2°53.545 19.7658 0.026463 0.147324 3.735503
2009-09-28 10:57:18 51°22.282 2°53.549 19.7549 0.026463 0.147321 3.735503
2009-09-28 10:57:23 51°22.298 2°53.553 19.7699 0.026463 0.147326 3.735503
2009-09-28 10:57:28 51°22.313 2°53.556 19.767 0.026463 0.147326 3.735503
2009-09-28 10:57:33 51°22.329 2°53.56 19.7771 0.026463 0.147329 3.735503
2009-09-28 10:57:38 51°22.345 2°53.563 19.7876 0.026463 0.147329 3.735503
2009-09-28 10:57:43 51°22.36 2°53.567 19.7554 0.026463 0.147326 3.735503
2009-09-28 10:57:48 51°22.376 2°53.57 19.7889 0.026463 0.147321 3.735503
2009-09-28 10:57:52 51°22.389 2°53.573 19.7886 0.026463 0.147324 3.735503
2009-09-28 10:57:58 51°22.407 2°53.577 19.7846 0.026463 0.147324 3.735503
2009-09-28 10:58:03 51°22.423 2°53.581 19.7934 0.026463 0.147318 3.735503
2009-09-28 10:58:08 51°22.439 2°53.584 19.7921 0.026463 0.147318 3.770327
2009-09-28 10:58:13 51°22.454 2°53.588 19.7918 0.026463 0.147313 3.770327
2009-09-28 10:58:18 51°22.47 2°53.592 19.7879 0.026463 0.147316 3.735503
2009-09-28 10:58:23 51°22.485 2°53.596 19.7872 0.026463 0.147321 3.770327
2009-09-28 10:58:28 51°22.501 2°53.599 19.7789 0.026463 0.147321 3.770327
2009-09-28 10:58:33 51°22.516 2°53.602 19.7819 0.026463 0.147339 3.735503
2009-09-28 10:58:38 51°22.532 2°53.606 19.802 0.026463 0.147347 3.770327
2009-09-28 10:58:43 51°22.547 2°53.61 19.7876 0.026463 0.147349 3.735503
2009-09-28 10:58:48 51°22.563 2°53.613 19.7931 0.026463 0.147349 3.735503
2009-09-28 10:58:53 51°22.578 2°53.617 19.7838 0.026463 0.147347 3.770327
2009-09-28 10:58:58 51°22.594 2°53.621 19.8091 0.026463 0.147347 3.770327
2009-09-28 10:59:03 51°22.609 2°53.625 19.8011 0.026463 0.147349 3.735503
2009-09-28 10:59:08 51°22.625 2°53.628 19.7915 0.026463 0.147347 3.735503
2009-09-28 10:59:12 51°22.637 2°53.631 19.7829 0.026463 0.147344 3.770327
2009-09-28 10:59:18 51°22.656 2°53.635 19.783 0.026463 0.147336 3.735503
2009-09-28 10:59:23 51°22.672 2°53.638 19.798 0.026463 0.147326 3.770327
2009-09-28 10:59:28 51°22.687 2°53.641 19.7906 0.026463 0.147326 3.770327
2009-09-28 10:59:33 51°22.703 2°53.645 19.8159 0.026463 0.147324 3.770327
2009-09-28 10:59:38 51°22.718 2°53.648 19.8012 0.026463 0.147326 3.735503
2009-09-28 10:59:43 51°22.734 2°53.652 19.7982 0.026463 0.147326 3.735503
2009-09-28 10:59:48 51°22.749 2°53.655 19.7866 0.026463 0.147334 3.770327
2009-09-28 10:59:53 51°22.765 2°53.659 19.7997 0.026463 0.147336 3.735503
2009-09-28 11:00:03 51°22.796 2°53.667 19.8069 0.026463 0.147339 3.770327
2009-09-28 11:00:08 51°22.812 2°53.67 19.8012 0.026463 0.147341 3.770327
2009-09-28 11:00:13 51°22.827 2°53.674 19.8021 0.026463 0.147336 3.770327
2009-09-28 11:00:18 51°22.843 2°53.677 19.8066 0.026463 0.147334 3.770327
2009-09-28 11:00:23 51°22.859 2°53.681 19.83 0.026463 0.147334 3.735503
2009-09-28 11:00:23 51°22.859 2°53.681 19.83 0.026463 0.147334 3.735503
2009-09-28 11:00:32 51°22.887 2°53.688 19.8202 0.026463 0.147334 3.770327
2009-09-28 11:00:38 51°22.906 2°53.692 19.7846 0.026463 0.147331 3.770327
2009-09-28 11:00:43 51°22.921 2°53.696 19.8113 0.026463 0.147331 3.770327
2009-09-28 11:00:48 51°22.937 2°53.699 19.8194 0.026463 0.147329 3.770327
2009-09-28 11:01:02 51°22.981 2°53.709 19.821 0.026463 0.147336 3.770327
2009-09-28 11:01:07 51°22.997 2°53.713 19.8279 0.026463 0.147334 3.770327
2009-09-28 11:01:12 51°23.012 2°53.716 19.8253 0.026463 0.147336 3.770327
2009-09-28 11:01:15 51°23.022 2°53.719 19.8357 0.026463 0.147336 3.770327
2009-09-28 11:01:22 51°23.043 2°53.724 19.8405 0.026463 0.147339 3.770327
2009-09-28 11:01:27 51°23.059 2°53.728 19.8285 0.026463 0.147344 3.770327
2009-09-28 11:01:32 51°23.074 2°53.732 19.8394 0.026463 0.147347 3.770327
2009-09-28 11:01:37 51°23.09 2°53.736 19.833 0.026463 0.147344 3.770327
2009-09-28 11:01:42 51°23.106 2°53.739 19.8348 0.026463 0.147347 3.770327
2009-09-28 11:01:47 51°23.121 2°53.742 19.8347 0.026463 0.147341 3.770327
2009-09-28 11:01:52 51°23.137 2°53.745 19.8412 0.026463 0.147341 3.770327
2009-09-28 11:01:57 51°23.153 2°53.748 19.8261 0.026463 0.147341 3.770327
2009-09-28 11:02:02 51°23.168 2°53.751 19.8416 0.026463 0.147349 3.770327
2009-09-28 11:02:07 51°23.184 2°53.755 19.8442 0.026463 0.147357 3.770327
2009-09-28 11:02:12 51°23.199 2°53.759 19.8426 0.026463 0.147364 3.770327
2009-09-28 11:02:17 51°23.215 2°53.763 19.841 0.026463 0.147364 3.770327
2009-09-28 11:02:22 51°23.231 2°53.766 19.8466 0.026463 0.147364 3.770327
2009-09-28 11:02:27 51°23.246 2°53.771 19.8437 0.026463 0.147362 3.805151
2009-09-28 11:02:32 51°23.262 2°53.775 19.8452 0.026463 0.147357 3.805151
2009-09-28 11:02:37 51°23.278 2°53.778 19.8577 0.026463 0.147354 3.770327
2009-09-28 11:02:42 51°23.293 2°53.782 19.8565 0.026463 0.147357 3.770327
2009-09-28 11:02:47 51°23.309 2°53.786 19.8431 0.026463 0.147352 3.805151
2009-09-28 11:02:52 51°23.325 2°53.79 19.8528 0.026463 0.147352 3.805151
2009-09-28 11:02:57 51°23.34 2°53.793 19.8442 0.026463 0.147349 3.805151
2009-09-28 11:03:02 51°23.356 2°53.797 19.8482 0.026463 0.147352 3.805151
2009-09-28 11:03:07 51°23.372 2°53.8 19.8509 0.026463 0.147352 3.770327
2009-09-28 11:03:12 51°23.388 2°53.804 19.8394 0.026463 0.147349 3.805151
2009-09-28 11:03:17 51°23.403 2°53.808 19.8517 0.026463 0.147347 3.770327
2009-09-28 11:03:22 51°23.419 2°53.812 19.8479 0.026463 0.147347 3.770327
2009-09-28 11:03:27 51°23.434 2°53.816 19.8635 0.026463 0.147349 3.770327
2009-09-28 11:03:32 51°23.45 2°53.82 19.8429 0.026463 0.147354 3.805151
2009-09-28 11:03:37 51°23.466 2°53.824 19.8473 0.026463 0.147352 3.805151
2009-09-28 11:03:42 51°23.482 2°53.828 19.8533 0.026463 0.147349 3.805151
2009-09-28 11:03:47 51°23.497 2°53.832 19.8713 0.026463 0.147347 3.805151
2009-09-28 11:03:52 51°23.513 2°53.835 19.8615 0.026463 0.147347 3.805151
2009-09-28 11:03:57 51°23.529 2°53.839 19.8497 0.026463 0.147354 3.805151
2009-09-28 11:04:02 51°23.545 2°53.843 19.8628 0.026463 0.147352 3.805151
2009-09-28 11:04:07 51°23.56 2°53.846 19.8582 0.026463 0.147357 3.805151
2009-09-28 11:04:12 51°23.576 2°53.85 19.8699 0.026463 0.147359 3.805151
2009-09-28 11:04:17 51°23.592 2°53.854 19.8847 0.026463 0.147362 3.805151
2009-09-28 11:04:22 51°23.608 2°53.857 19.8795 0.026463 0.147362 3.805151
2009-09-28 11:04:27 51°23.624 2°53.861 19.8805 0.026463 0.147359 3.805151
2009-09-28 11:04:32 51°23.64 2°53.865 19.8774 0.026463 0.147362 3.805151
2009-09-28 11:04:37 51°23.655 2°53.868 19.8772 0.026463 0.147364 3.805151
2009-09-28 11:04:42 51°23.671 2°53.872 19.8748 0.026463 0.147367 3.805151
2009-09-28 11:04:47 51°23.687 2°53.876 19.8793 0.026463 0.147369 3.805151
2009-09-28 11:04:52 51°23.702 2°53.88 19.8788 0.026463 0.147369 3.805151
2009-09-28 11:04:57 51°23.718 2°53.883 19.8841 0.026463 0.147369 3.805151
2009-09-28 11:05:02 51°23.733 2°53.887 19.8821 0.026463 0.147369 3.805151
2009-09-28 11:05:07 51°23.749 2°53.891 19.8966 0.026463 0.147367 3.805151
2009-09-28 11:05:12 51°23.765 2°53.895 19.8972 0.026566 0.147947 3.805151
2009-09-28 11:05:17 51°23.781 2°53.898 19.8904 0.026463 0.147369 3.805151
2009-09-28 11:05:22 51°23.796 2°53.9 19.8871 0.026463 0.147369 3.805151
2009-09-28 11:05:27 51°23.812 2°53.903 19.8777 0.026463 0.14738 3.805151
2009-09-28 11:05:32 51°23.828 2°53.904 19.8895 0.026463 0.147382 3.839975
2009-09-28 11:05:36 51°23.84 2°53.905 19.8898 0.026566 0.14796 3.805151
2009-09-28 11:05:42 51°23.859 2°53.907 19.8891 0.026566 0.147962 3.805151
2009-09-28 11:05:47 51°23.875 2°53.907 19.8868 0.026463 0.14738 3.805151
2009-09-28 11:05:52 51°23.891 2°53.908 19.8904 0.026463 0.14738 3.805151
2009-09-28 11:05:57 51°23.906 2°53.908 19.8983 0.026463 0.147377 3.805151
2009-09-28 11:06:02 51°23.922 2°53.909 19.8853 0.026463 0.147372 3.805151
2009-09-28 11:06:07 51°23.938 2°53.909 19.884 0.026463 0.147369 3.805151
2009-09-28 11:06:12 51°23.954 2°53.909 19.9061 0.026463 0.147369 3.839975
2009-09-28 11:06:17 51°23.969 2°53.91 19.8936 0.026463 0.147364 3.805151
2009-09-28 11:06:22 51°23.985 2°53.91 19.8949 0.026463 0.147364 3.805151
2009-09-28 11:06:27 51°24.001 2°53.91 19.8985 0.026463 0.147359 3.839975
2009-09-28 11:06:32 51°24.017 2°53.91 19.8995 0.026463 0.147359 3.805151
2009-09-28 11:06:37 51°24.033 2°53.91 19.895 0.026463 0.147359 3.805151
2009-09-28 11:06:42 51°24.048 2°53.91 19.9052 0.026463 0.147357 3.805151
2009-09-28 11:06:47 51°24.064 2°53.91 19.9124 0.026463 0.147357 3.805151
2009-09-28 11:06:52 51°24.081 2°53.91 19.9164 0.026463 0.147357 3.805151
2009-09-28 11:06:57 51°24.097 2°53.911 19.9044 0.026463 0.147354 3.839975
2009-09-28 11:07:02 51°24.113 2°53.91 19.909 0.026463 0.147354 3.839975
2009-09-28 11:07:07 51°24.129 2°53.911 19.9035 0.026463 0.147352 3.839975
2009-09-28 11:07:12 51°24.145 2°53.91 19.9265 0.026463 0.147354 3.839975
2009-09-28 11:07:17 51°24.161 2°53.911 19.9055 0.026463 0.147357 3.839975
2009-09-28 11:07:22 51°24.177 2°53.911 19.9094 0.026463 0.147357 3.839975
2009-09-28 11:07:27 51°24.193 2°53.911 19.9188 0.026463 0.147354 3.839975
2009-09-28 11:07:32 51°24.208 2°53.911 19.9133 0.026463 0.147352 3.839975
2009-09-28 11:07:37 51°24.224 2°53.911 19.9298 0.026463 0.147349 3.839975
2009-09-28 11:07:42 51°24.24 2°53.911 19.9113 0.026463 0.147347 3.839975
2009-09-28 11:07:47 51°24.255 2°53.912 19.932 0.026463 0.147349 3.839975
2009-09-28 11:07:52 51°24.271 2°53.912 19.9209 0.026463 0.147349 3.839975
2009-09-28 11:07:57 51°24.287 2°53.912 19.946 0.026463 0.147352 3.839975
2009-09-28 11:08:02 51°24.303 2°53.913 19.9273 0.026463 0.147357 3.839975
2009-09-28 11:08:07 51°24.318 2°53.913 19.9313 0.026463 0.147359 3.839975
2009-09-28 11:08:12 51°24.335 2°53.912 19.9305 0.026463 0.147354 3.839975
2009-09-28 11:08:17 51°24.351 2°53.911 19.9397 0.026463 0.147352 3.839975
2009-09-28 11:08:22 51°24.367 2°53.912 19.9367 0.026463 0.147352 3.839975
2009-09-28 11:08:27 51°24.382 2°53.912 19.9462 0.026463 0.147349 3.839975
2009-09-28 11:08:32 51°24.398 2°53.912 19.9294 0.026463 0.147352 3.839975
2009-09-28 11:08:37 51°24.414 2°53.912 19.9237 0.026463 0.147347 3.839975
2009-09-28 11:08:42 51°24.43 2°53.912 19.9504 0.026566 0.147921 3.839975
2009-09-28 11:08:47 51°24.446 2°53.913 19.934 0.026566 0.147939 3.839975
2009-09-28 11:08:52 51°24.461 2°53.914 19.9439 0.026566 0.147939 3.839975
2009-09-28 11:08:57 51°24.477 2°53.915 19.9455 0.026566 0.147944 3.839975
2009-09-28 11:09:02 51°24.493 2°53.917 19.9395 0.026566 0.147944 3.839975
2009-09-28 11:09:07 51°24.509 2°53.919 19.951 0.026566 0.147944 3.839975
2009-09-28 11:09:12 51°24.525 2°53.921 19.9535 0.026566 0.147942 3.839975
2009-09-28 11:09:17 51°24.54 2°53.923 19.9497 0.026566 0.147942 3.839975
2009-09-28 11:09:22 51°24.555 2°53.926 19.9603 0.026566 0.147942 3.839975
2009-09-28 11:09:27 51°24.57 2°53.929 19.9644 0.026566 0.147939 3.839975
2009-09-28 11:09:32 51°24.586 2°53.931 19.9497 0.026463 0.147364 3.839975
2009-09-28 11:09:37 51°24.602 2°53.933 19.933 0.026566 0.147937 3.874799
2009-09-28 11:09:42 51°24.618 2°53.936 19.9458 0.026463 0.147359 3.874799
2009-09-28 11:09:47 51°24.633 2°53.938 19.9686 0.026566 0.147931 3.874799
2009-09-28 11:09:52 51°24.649 2°53.94 19.957 0.026566 0.147931 3.874799
2009-09-28 11:09:57 51°24.665 2°53.942 19.9614 0.026463 0.147354 3.839975
2009-09-28 11:10:02 51°24.681 2°53.944 19.9341 0.026566 0.147931 3.839975
2009-09-28 11:10:07 51°24.697 2°53.946 19.9662 0.026566 0.147929 3.839975
2009-09-28 11:10:12 51°24.713 2°53.948 19.9569 0.026463 0.147349 3.874799
2009-09-28 11:10:17 51°24.729 2°53.95 19.9432 0.026463 0.147347 3.874799
2009-09-28 11:10:22 51°24.745 2°53.952 19.9512 0.026463 0.147347 3.874799
2009-09-28 11:10:27 51°24.76 2°53.955 19.9634 0.026463 0.147347 3.839975
2009-09-28 11:10:32 51°24.776 2°53.958 19.9579 0.026566 0.147921 3.874799
2009-09-28 11:10:37 51°24.792 2°53.961 19.9647 0.026463 0.147347 3.874799
2009-09-28 11:10:42 51°24.808 2°53.964 19.9813 0.026566 0.147924 3.874799
2009-09-28 11:10:47 51°24.824 2°53.967 19.9598 0.026566 0.147926 3.874799
2009-09-28 11:10:52 51°24.839 2°53.971 19.9552 0.026566 0.147926 3.874799
2009-09-28 11:10:57 51°24.855 2°53.975 19.9655 0.026463 0.147354 3.874799
2009-09-28 11:11:02 51°24.871 2°53.977 19.9627 0.026463 0.147349 3.874799
2009-09-28 11:11:07 51°24.887 2°53.981 19.9658 0.026566 0.147929 3.874799
2009-09-28 11:11:12 51°24.903 2°53.985 19.9704 0.026463 0.147352 3.874799
2009-09-28 11:11:17 51°24.919 2°53.987 19.9862 0.026463 0.147354 3.874799
2009-09-28 11:11:22 51°24.935 2°53.991 19.9909 0.026463 0.147354 3.874799
2009-09-28 11:11:27 51°24.951 2°53.993 19.9732 0.026566 0.147929 3.874799
2009-09-28 11:11:32 51°24.967 2°53.996 19.9777 0.026463 0.147349 3.874799
2009-09-28 11:11:37 51°24.983 2°53.999 19.9866 0.026463 0.147344 3.874799
2009-09-28 11:11:42 51°24.999 2°54.002 19.9702 0.026566 0.147924 3.874799
2009-09-28 11:11:47 51°25.014 2°54.005 19.9826 0.026566 0.147924 3.874799
2009-09-28 11:11:52 51°25.031 2°54.008 19.9934 0.026566 0.147924 3.874799
2009-09-28 11:11:57 51°25.046 2°54.012 20.0018 0.026566 0.147931 3.874799
2009-09-28 11:12:02 51°25.062 2°54.015 19.9891 0.026463 0.147357 3.874799
2009-09-28 11:12:07 51°25.078 2°54.018 19.9965 0.026463 0.147352 3.874799
2009-09-28 11:12:12 51°25.095 2°54.021 19.9914 0.026566 0.147924 3.874799
2009-09-28 11:12:17 51°25.111 2°54.024 19.9878 0.026566 0.147924 3.874799
2009-09-28 11:12:22 51°25.127 2°54.027 19.9687 0.026566 0.147924 3.874799
2009-09-28 11:12:27 51°25.143 2°54.031 19.9808 0.026463 0.147347 3.909623
2009-09-28 11:12:32 51°25.159 2°54.034 19.9909 0.026566 0.147919 3.874799
2009-09-28 11:12:36 51°25.172 2°54.037 19.9926 0.026463 0.147344 3.874799
2009-09-28 11:12:42 51°25.191 2°54.041 20.0042 0.026566 0.147919 3.874799
2009-09-28 11:12:47 51°25.207 2°54.044 20.0074 0.026566 0.147929 3.874799
2009-09-28 11:12:52 51°25.223 2°54.047 19.9972 0.026566 0.147929 3.874799
2009-09-28 11:12:57 51°25.239 2°54.05 19.9982 0.026566 0.147931 3.874799
2009-09-28 11:13:02 51°25.254 2°54.053 20.0011 0.026566 0.147931 3.874799
2009-09-28 11:13:07 51°25.27 2°54.056 19.9828 0.026566 0.147929 3.874799
2009-09-28 11:13:12 51°25.286 2°54.059 20.0002 0.026566 0.147929 3.874799
2009-09-28 11:13:17 51°25.302 2°54.062 19.9936 0.026566 0.147929 3.909623
2009-09-28 11:13:22 51°25.318 2°54.065 20.0118 0.026566 0.147929 3.909623
2009-09-28 11:13:27 51°25.334 2°54.068 19.9869 0.026566 0.147934 3.909623
2009-09-28 11:13:32 51°25.35 2°54.071 19.9955 0.026463 0.147357 3.874799
2009-09-28 11:13:37 51°25.365 2°54.074 19.9995 0.026566 0.147924 3.909623
2009-09-28 11:13:42 51°25.381 2°54.078 19.9952 0.026566 0.147926 3.909623
2009-09-28 11:13:47 51°25.397 2°54.081 20.0067 0.026566 0.147924 3.909623
2009-09-28 11:13:52 51°25.413 2°54.084 20.0046 0.026566 0.147924 3.909623
2009-09-28 11:13:57 51°25.428 2°54.088 20.0167 0.026566 0.147921 3.874799
2009-09-28 11:14:02 51°25.444 2°54.091 20.0206 0.026566 0.147924 3.909623
2009-09-28 11:14:07 51°25.46 2°54.094 20.0234 0.026566 0.147929 3.909623
2009-09-28 11:14:12 51°25.476 2°54.098 20 0.026566 0.147924 3.909623
2009-09-28 11:14:17 51°25.492 2°54.101 20.0103 0.026566 0.147924 3.909623
2009-09-28 11:14:22 51°25.507 2°54.104 20.0018 0.026566 0.147924 3.909623
2009-09-28 11:14:27 51°25.523 2°54.107 20.0167 0.026566 0.147929 3.909623
2009-09-28 11:14:32 51°25.539 2°54.11 20.0295 0.026566 0.147931 3.909623
2009-09-28 11:14:37 51°25.554 2°54.113 20.0131 0.026566 0.147929 3.909623
2009-09-28 11:14:42 51°25.57 2°54.116 20.0029 0.026566 0.147921 3.909623
2009-09-28 11:14:47 51°25.586 2°54.119 20.024 0.026566 0.147929 3.909623
2009-09-28 11:14:52 51°25.601 2°54.122 20.0262 0.026566 0.147929 3.909623
2009-09-28 11:14:57 51°25.617 2°54.125 20.027 0.026566 0.147929 3.909623
2009-09-28 11:15:02 51°25.633 2°54.127 20.0378 0.026566 0.147926 3.909623
2009-09-28 11:15:07 51°25.648 2°54.13 20.024 0.026566 0.147926 3.909623
2009-09-28 11:15:12 51°25.664 2°54.133 20.0369 0.026566 0.147926 3.909623
2009-09-28 11:15:17 51°25.679 2°54.136 20.0324 0.026566 0.147924 3.909623
2009-09-28 11:15:22 51°25.695 2°54.139 20.0313 0.026566 0.147924 3.909623
2009-09-28 11:15:27 51°25.71 2°54.142 20.0445 0.026566 0.147919 3.909623
2009-09-28 11:15:32 51°25.726 2°54.145 20.0448 0.026566 0.147916 3.909623
2009-09-28 11:15:37 51°25.742 2°54.148 20.0413 0.026566 0.147919 3.909623
2009-09-28 11:15:42 51°25.757 2°54.152 20.0291 0.026566 0.147919 3.909623
2009-09-28 11:15:47 51°25.773 2°54.154 20.0536 0.026566 0.147921 3.909623
2009-09-28 11:15:52 51°25.788 2°54.158 20.0449 0.026566 0.147921 3.909623
2009-09-28 11:15:56 51°25.801 2°54.16 20.036 0.026566 0.147924 3.909623
2009-09-28 11:16:02 51°25.819 2°54.164 20.0468 0.026566 0.147924 3.909623
2009-09-28 11:16:07 51°25.835 2°54.167 20.0381 0.026566 0.147924 3.909623
2009-09-28 11:16:12 51°25.85 2°54.169 20.0499 0.026566 0.147924 3.909623
2009-09-28 11:16:17 51°25.866 2°54.172 20.0398 0.026566 0.147924 3.909623
2009-09-28 11:16:22 51°25.881 2°54.175 20.0353 0.026566 0.147924 3.909623
2009-09-28 11:16:27 51°25.897 2°54.178 20.0534 0.026566 0.147914 3.909623
2009-09-28 11:16:32 51°25.913 2°54.181 20.0527 0.026566 0.147911 3.909623
2009-09-28 11:16:37 51°25.928 2°54.184 20.0589 0.026566 0.147914 3.909623
2009-09-28 11:16:42 51°25.944 2°54.186 20.0498 0.026566 0.147916 3.944447
2009-09-28 11:16:47 51°25.959 2°54.189 20.053 0.026566 0.147916 3.944447
2009-09-28 11:16:52 51°25.975 2°54.192 20.0349 0.026566 0.147916 3.944447
2009-09-28 11:16:57 51°25.991 2°54.194 20.0486 0.026566 0.147914 3.944447
2009-09-28 11:17:02 51°26.006 2°54.197 20.0445 0.026566 0.147914 3.909623
2009-09-28 11:17:07 51°26.022 2°54.2 20.0582 0.026566 0.147911 3.909623
2009-09-28 11:17:12 51°26.037 2°54.202 20.0583 0.026566 0.147916 3.944447
2009-09-28 11:17:17 51°26.053 2°54.206 20.0739 0.026566 0.147916 3.944447
2009-09-28 11:17:22 51°26.069 2°54.209 20.0601 0.026566 0.147916 3.944447
2009-09-28 11:17:27 51°26.084 2°54.212 20.0637 0.026566 0.147921 3.944447
2009-09-28 11:17:32 51°26.1 2°54.214 20.0525 0.026566 0.147919 3.944447
2009-09-28 11:17:37 51°26.115 2°54.216 20.0587 0.026566 0.147916 3.944447
2009-09-28 11:17:42 51°26.131 2°54.219 20.0588 0.026566 0.147914 3.944447
2009-09-28 11:17:47 51°26.146 2°54.222 20.0462 0.026566 0.147914 3.909623
2009-09-28 11:17:52 51°26.162 2°54.225 20.0687 0.026566 0.147914 3.909623
2009-09-28 11:17:57 51°26.177 2°54.229 20.0529 0.026566 0.147914 3.944447
2009-09-28 11:18:02 51°26.192 2°54.231 20.0791 0.026566 0.147911 3.944447
2009-09-28 11:18:07 51°26.208 2°54.235 20.0703 0.026566 0.147919 3.944447
2009-09-28 11:18:12 51°26.223 2°54.238 20.0592 0.026566 0.147919 3.944447
2009-09-28 11:18:17 51°26.239 2°54.242 20.0617 0.026566 0.147916 3.944447
2009-09-28 11:18:22 51°26.254 2°54.244 20.0577 0.026566 0.147916 3.944447
2009-09-28 11:18:27 51°26.27 2°54.247 20.0577 0.026566 0.147914 3.944447
2009-09-28 11:18:32 51°26.286 2°54.25 20.0674 0.026566 0.147911 3.944447
2009-09-28 11:18:37 51°26.301 2°54.253 20.0916 0.026566 0.147911 3.944447
2009-09-28 11:18:42 51°26.317 2°54.257 20.0598 0.026566 0.147908 3.944447
2009-09-28 11:18:47 51°26.332 2°54.259 20.09 0.026566 0.147903 3.944447
2009-09-28 11:18:52 51°26.348 2°54.263 20.0575 0.026566 0.147903 3.944447
2009-09-28 11:18:57 51°26.363 2°54.265 20.0721 0.026566 0.147903 3.944447
2009-09-28 11:19:02 51°26.379 2°54.269 20.0837 0.026566 0.147903 3.944447
2009-09-28 11:19:07 51°26.394 2°54.272 20.0814 0.026566 0.147906 3.944447
2009-09-28 11:19:12 51°26.41 2°54.275 20.066 0.026566 0.147903 3.944447
2009-09-28 11:19:17 51°26.425 2°54.277 20.0744 0.026463 0.147329 3.944447
2009-09-28 11:19:22 51°26.441 2°54.281 20.0954 0.026463 0.147329 3.944447
2009-09-28 11:19:27 51°26.457 2°54.283 20.0893 0.026566 0.147906 3.944447
2009-09-28 11:19:32 51°26.472 2°54.287 20.0986 0.026566 0.147906 3.944447
2009-09-28 11:19:37 51°26.488 2°54.289 20.0993 0.026566 0.147906 3.944447
2009-09-28 11:19:42 51°26.503 2°54.292 20.0804 0.026566 0.147908 3.944447
2009-09-28 11:19:47 51°26.519 2°54.295 20.1026 0.026566 0.147908 3.979271
2009-09-28 11:19:52 51°26.535 2°54.298 20.0953 0.026566 0.147908 3.979271
2009-09-28 11:19:57 51°26.55 2°54.3 20.1042 0.026566 0.147903 3.979271
2009-09-28 11:20:02 51°26.566 2°54.303 20.0972 0.026566 0.147903 3.944447
2009-09-28 11:20:07 51°26.581 2°54.306 20.0731 0.026566 0.147903 3.979271
2009-09-28 11:20:12 51°26.597 2°54.308 20.0656 0.026566 0.147903 3.979271
2009-09-28 11:20:17 51°26.612 2°54.311 20.1118 0.026566 0.147903 3.979271
2009-09-28 11:20:22 51°26.628 2°54.314 20.0985 0.026566 0.147903 3.979271
2009-09-28 11:20:27 51°26.643 2°54.317 20.0766 0.026566 0.147901 3.979271
2009-09-28 11:20:32 51°26.659 2°54.319 20.1068 0.026566 0.147898 3.944447
2009-09-28 11:20:37 51°26.674 2°54.322 20.1109 0.026566 0.147901 3.979271
2009-09-28 11:20:42 51°26.69 2°54.326 20.0847 0.026566 0.147898 3.979271
2009-09-28 11:20:47 51°26.706 2°54.328 20.089 0.026566 0.147898 3.979271
2009-09-28 11:20:52 51°26.722 2°54.332 20.1056 0.026566 0.147898 3.979271
2009-09-28 11:20:57 51°26.737 2°54.335 20.089 0.026566 0.147903 3.979271
2009-09-28 11:21:02 51°26.753 2°54.338 20.104 0.026566 0.147901 3.979271
2009-09-28 11:21:07 51°26.768 2°54.342 20.0999 0.026566 0.147901 3.979271
2009-09-28 11:21:12 51°26.784 2°54.345 20.1169 0.026566 0.147901 3.944447
2009-09-28 11:21:16 51°26.796 2°54.348 20.1082 0.026566 0.147898 3.979271